Time,TemperatureF,DewpointF,PressureIn,WindDirection,WindDirectionDegrees,WindSpeedMPH,WindSpeedGustMPH,Humidity,HourlyPrecipIn,Conditions,Clouds,dailyrainin,SoftwareType,DateUTC
2013-10-22 00:00:00,52.9,51.5,30.03,WSW,248,1.0,9.0,95,0.00,,---,0.00,VWS V13.01,2013-10-22 05:00:00,
2013-10-22 00:30:00,52.4,50.7,30.03,West,270,3.0,7.0,94,0.00,,---,0.00,VWS V13.01,2013-10-22 05:30:00,
2013-10-22 01:00:00,51.3,48.2,30.04,West,270,3.0,10.0,89,0.00,,---,0.00,VWS V13.01,2013-10-22 06:00:00,
2013-10-22 01:30:00,50.4,47.3,30.04,West,270,2.0,9.0,89,0.00,,---,0.00,VWS V13.01,2013-10-22 06:30:00,
2013-10-22 02:00:00,49.9,47.1,30.04,West,270,1.0,7.0,90,0.00,,---,0.00,VWS V13.01,2013-10-22 07:00:00,
2013-10-22 02:30:00,49.4,46.3,30.05,West,270,2.0,7.0,89,0.00,,---,0.00,VWS V13.01,2013-10-22 07:30:00,
2013-10-22 03:00:00,49.0,46.2,30.05,West,270,1.0,5.0,90,0.00,,---,0.00,VWS V13.01,2013-10-22 08:00:00,
2013-10-22 03:30:00,48.7,45.6,30.05,West,270,1.0,6.0,89,0.00,,---,0.00,VWS V13.01,2013-10-22 08:30:00,
2013-10-22 04:00:00,48.0,44.0,30.05,West,270,0.0,3.0,86,0.00,,---,0.00,VWS V13.01,2013-10-22 09:00:00,
2013-10-22 04:30:00,47.0,43.9,30.05,West,270,0.0,0.0,89,0.00,,---,0.00,VWS V13.01,2013-10-22 09:30:00,
2013-10-22 05:00:00,45.9,43.1,30.06,West,270,0.0,0.0,90,0.00,,---,0.00,VWS V13.01,2013-10-22 10:00:00,
2013-10-22 05:30:00,44.7,42.5,30.05,West,270,0.0,2.0,92,0.00,,---,0.00,VWS V13.01,2013-10-22 10:30:00,
2013-10-22 06:00:00,43.8,41.3,30.05,West,270,0.0,1.0,91,0.00,,---,0.00,VWS V13.01,2013-10-22 11:00:00,
2013-10-22 06:30:00,43.1,40.4,30.05,West,270,0.0,0.0,90,0.00,,---,0.00,VWS V13.01,2013-10-22 11:30:00,
2013-10-22 06:50:00,41.8,39.4,30.06,West,275,0.0,0.0,91,0.00,,---,0.00,VWS V13.01,2013-10-22 11:50:00,
2013-10-22 06:51:00,41.8,39.4,30.06,West,275,0.0,0.0,91,0.00,,---,0.00,VWS V13.01,2013-10-22 11:51:00,
2013-10-22 06:52:00,41.8,39.4,30.06,West,275,0.0,0.0,91,0.00,,---,0.00,VWS V13.01,2013-10-22 11:52:00,
2013-10-22 06:53:00,41.8,39.4,30.06,West,275,0.0,0.0,91,0.00,,---,0.00,VWS V13.01,2013-10-22 11:53:00,
2013-10-22 06:54:00,41.8,39.4,30.06,West,275,0.0,0.0,91,0.00,,---,0.00,VWS V13.01,2013-10-22 11:54:00,
2013-10-22 06:55:00,41.7,39.3,30.06,West,275,0.0,0.0,91,0.00,,---,0.00,VWS V13.01,2013-10-22 11:55:00,
2013-10-22 06:56:00,41.7,39.3,30.06,West,275,0.0,0.0,91,0.00,,---,0.00,VWS V13.01,2013-10-22 11:56:00,
2013-10-22 06:57:00,41.7,39.3,30.06,West,275,0.0,0.0,91,0.00,,---,0.00,VWS V13.01,2013-10-22 11:57:00,
2013-10-22 06:58:00,41.6,39.2,30.06,West,275,0.0,0.0,91,0.00,,---,0.00,VWS V13.01,2013-10-22 11:58:00,
2013-10-22 06:59:00,41.6,39.2,30.06,West,275,0.0,0.0,91,0.00,,---,0.00,VWS V13.01,2013-10-22 11:59:00,
2013-10-22 07:00:00,41.6,39.2,30.06,West,275,0.0,0.0,91,0.00,,---,0.00,VWS V13.01,2013-10-22 12:00:00,
2013-10-22 07:01:00,41.6,39.5,30.06,West,275,0.0,0.0,92,0.00,,---,0.00,VWS V13.01,2013-10-22 12:01:00,
2013-10-22 07:02:00,41.6,39.5,30.06,West,275,0.0,0.0,92,0.00,,---,0.00,VWS V13.01,2013-10-22 12:02:00,
2013-10-22 07:03:00,41.6,39.5,30.06,West,275,0.0,0.0,92,0.00,,---,0.00,VWS V13.01,2013-10-22 12:03:00,
2013-10-22 07:04:00,41.6,39.5,30.05,West,275,0.0,0.0,92,0.00,,---,0.00,VWS V13.01,2013-10-22 12:04:00,
2013-10-22 07:05:00,41.6,39.5,30.06,West,275,0.0,0.0,92,0.00,,---,0.00,VWS V13.01,2013-10-22 12:05:00,
2013-10-22 07:06:00,41.6,39.5,30.05,West,275,0.0,0.0,92,0.00,,---,0.00,VWS V13.01,2013-10-22 12:06:00,
2013-10-22 07:07:00,41.6,39.5,30.06,West,275,0.0,0.0,92,0.00,,---,0.00,VWS V13.01,2013-10-22 12:07:00,
2013-10-22 07:08:00,41.6,39.5,30.06,West,275,0.0,0.0,92,0.00,,---,0.00,VWS V13.01,2013-10-22 12:08:00,
2013-10-22 07:09:00,41.6,39.5,30.06,West,275,0.0,0.0,92,0.00,,---,0.00,VWS V13.01,2013-10-22 12:09:00,
2013-10-22 07:10:00,41.6,39.5,30.06,West,275,0.0,0.0,92,0.00,,---,0.00,VWS V13.01,2013-10-22 12:10:00,
2013-10-22 07:11:00,41.7,39.8,30.06,West,275,0.0,0.0,93,0.00,,---,0.00,VWS V13.01,2013-10-22 12:11:00,
2013-10-22 07:12:00,41.7,39.8,30.05,West,275,0.0,0.0,93,0.00,,---,0.00,VWS V13.01,2013-10-22 12:12:00,
2013-10-22 07:13:00,41.8,39.9,30.06,West,275,0.0,0.0,93,0.00,,---,0.00,VWS V13.01,2013-10-22 12:13:00,
2013-10-22 07:14:00,41.8,39.9,30.06,West,275,0.0,0.0,93,0.00,,---,0.00,VWS V13.01,2013-10-22 12:14:00,
2013-10-22 07:15:00,41.9,40.0,30.06,West,275,0.0,0.0,93,0.00,,---,0.00,VWS V13.01,2013-10-22 12:15:00,
2013-10-22 07:16:00,42.0,40.1,30.06,West,275,0.0,0.0,93,0.00,,---,0.00,VWS V13.01,2013-10-22 12:16:00,
2013-10-22 07:17:00,42.1,40.2,30.06,West,275,0.0,0.0,93,0.00,,---,0.00,VWS V13.01,2013-10-22 12:17:00,
2013-10-22 07:18:00,42.2,40.3,30.06,West,275,0.0,0.0,93,0.00,,---,0.00,VWS V13.01,2013-10-22 12:18:00,
2013-10-22 07:19:00,42.3,40.4,30.06,West,275,0.0,0.0,93,0.00,,---,0.00,VWS V13.01,2013-10-22 12:19:00,
2013-10-22 07:20:00,42.4,40.5,30.06,West,275,0.0,0.0,93,0.00,,---,0.00,VWS V13.01,2013-10-22 12:20:00,
2013-10-22 07:21:00,42.4,40.5,30.06,West,275,0.0,0.0,93,0.00,,---,0.00,VWS V13.01,2013-10-22 12:21:00,
2013-10-22 07:22:00,42.5,40.6,30.06,West,275,0.0,0.0,93,0.00,,---,0.00,VWS V13.01,2013-10-22 12:22:00,
2013-10-22 07:23:00,42.6,40.7,30.06,West,275,0.0,0.0,93,0.00,,---,0.00,VWS V13.01,2013-10-22 12:23:00,
2013-10-22 07:24:00,42.7,40.8,30.06,West,275,0.0,0.0,93,0.00,,---,0.00,VWS V13.01,2013-10-22 12:24:00,
2013-10-22 07:25:00,42.8,40.9,30.06,West,275,0.0,0.0,93,0.00,,---,0.00,VWS V13.01,2013-10-22 12:25:00,
2013-10-22 07:26:00,42.9,41.0,30.05,West,275,0.0,0.0,93,0.00,,---,0.00,VWS V13.01,2013-10-22 12:26:00,
2013-10-22 07:27:00,43.0,41.1,30.06,West,275,0.0,0.0,93,0.00,,---,0.00,VWS V13.01,2013-10-22 12:27:00,
2013-10-22 07:28:00,43.1,41.2,30.05,West,275,0.0,0.0,93,0.00,,---,0.00,VWS V13.01,2013-10-22 12:28:00,
2013-10-22 07:29:00,43.2,41.3,30.05,West,275,0.0,0.0,93,0.00,,---,0.00,VWS V13.01,2013-10-22 12:29:00,
2013-10-22 07:30:00,43.3,41.4,30.06,West,275,0.0,0.0,93,0.00,,---,0.00,VWS V13.01,2013-10-22 12:30:00,
2013-10-22 07:31:00,43.4,41.5,30.05,West,275,0.0,0.0,93,0.00,,---,0.00,VWS V13.01,2013-10-22 12:31:00,
2013-10-22 07:32:00,43.6,41.7,30.06,West,275,0.0,0.0,93,0.00,,---,0.00,VWS V13.01,2013-10-22 12:32:00,
2013-10-22 07:33:00,43.7,41.8,30.05,West,275,0.0,0.0,93,0.00,,---,0.00,VWS V13.01,2013-10-22 12:33:00,
2013-10-22 07:34:00,44.0,42.1,30.06,West,275,0.0,1.0,93,0.00,,---,0.00,VWS V13.01,2013-10-22 12:34:00,
2013-10-22 07:35:00,44.0,42.1,30.06,West,275,0.0,1.0,93,0.00,,---,0.00,VWS V13.01,2013-10-22 12:35:00,
2013-10-22 07:36:00,44.2,42.3,30.06,West,275,0.0,1.0,93,0.00,,---,0.00,VWS V13.01,2013-10-22 12:36:00,
2013-10-22 07:37:00,44.3,42.4,30.05,West,275,0.0,1.0,93,0.00,,---,0.00,VWS V13.01,2013-10-22 12:37:00,
2013-10-22 07:38:00,44.5,42.6,30.05,West,275,0.0,1.0,93,0.00,,---,0.00,VWS V13.01,2013-10-22 12:38:00,
2013-10-22 07:39:00,44.6,42.4,30.06,West,275,0.0,1.0,92,0.00,,---,0.00,VWS V13.01,2013-10-22 12:39:00,
2013-10-22 07:40:00,44.7,42.2,30.06,West,275,0.0,1.0,91,0.00,,---,0.00,VWS V13.01,2013-10-22 12:40:00,
2013-10-22 07:41:00,44.8,42.3,30.06,West,275,0.0,1.0,91,0.00,,---,0.00,VWS V13.01,2013-10-22 12:41:00,
2013-10-22 07:42:00,45.0,42.5,30.06,West,275,0.0,1.0,91,0.00,,---,0.00,VWS V13.01,2013-10-22 12:42:00,
2013-10-22 07:43:00,45.1,42.6,30.06,West,275,0.0,1.0,91,0.00,,---,0.00,VWS V13.01,2013-10-22 12:43:00,
2013-10-22 07:44:00,45.2,42.7,30.06,West,275,0.0,1.0,91,0.00,,---,0.00,VWS V13.01,2013-10-22 12:44:00,
2013-10-22 07:45:00,45.4,42.9,30.06,West,275,1.0,2.0,91,0.00,,---,0.00,VWS V13.01,2013-10-22 12:45:00,
2013-10-22 07:46:00,45.5,42.7,30.06,West,275,0.0,2.0,90,0.00,,---,0.00,VWS V13.01,2013-10-22 12:46:00,
2013-10-22 07:47:00,45.6,42.8,30.06,West,275,0.0,2.0,90,0.00,,---,0.00,VWS V13.01,2013-10-22 12:47:00,
2013-10-22 07:48:00,45.8,43.0,30.06,West,275,0.0,2.0,90,0.00,,---,0.00,VWS V13.01,2013-10-22 12:48:00,
2013-10-22 07:49:00,45.9,43.1,30.06,West,275,0.0,2.0,90,0.00,,---,0.00,VWS V13.01,2013-10-22 12:49:00,
2013-10-22 07:50:00,46.1,43.3,30.06,West,275,0.0,2.0,90,0.00,,---,0.00,VWS V13.01,2013-10-22 12:50:00,
2013-10-22 07:51:00,46.2,43.4,30.06,West,275,0.0,3.0,90,0.00,,---,0.00,VWS V13.01,2013-10-22 12:51:00,
2013-10-22 07:52:00,46.4,43.3,30.06,West,275,0.0,3.0,89,0.00,,---,0.00,VWS V13.01,2013-10-22 12:52:00,
2013-10-22 07:53:00,46.5,43.4,30.06,West,275,0.0,3.0,89,0.00,,---,0.00,VWS V13.01,2013-10-22 12:53:00,
2013-10-22 07:54:00,46.6,43.5,30.06,West,275,0.0,3.0,89,0.00,,---,0.00,VWS V13.01,2013-10-22 12:54:00,
2013-10-22 07:55:00,46.7,43.6,30.06,West,275,0.0,3.0,89,0.00,,---,0.00,VWS V13.01,2013-10-22 12:55:00,
2013-10-22 07:56:00,46.8,44.6,30.06,West,275,3.0,3.0,92,0.00,,---,0.00,VWS V13.01,2013-10-22 12:56:00,
2013-10-22 07:57:00,46.8,43.1,30.06,West,275,2.0,3.0,87,0.00,,---,0.00,VWS V13.01,2013-10-22 12:57:00,
2013-10-22 07:58:00,46.9,42.9,30.06,West,275,0.0,3.0,86,0.00,,---,0.00,VWS V13.01,2013-10-22 12:58:00,
2013-10-22 07:59:00,47.0,43.3,30.06,West,275,1.0,3.0,87,0.00,,---,0.00,VWS V13.01,2013-10-22 12:59:00,
2013-10-22 08:00:00,47.0,43.3,30.06,West,275,0.0,3.0,87,0.00,,---,0.00,VWS V13.01,2013-10-22 13:00:00,
2013-10-22 08:01:00,47.1,43.1,30.06,West,275,0.0,0.0,86,0.00,,---,0.00,VWS V13.01,2013-10-22 13:01:00,
2013-10-22 08:02:00,47.1,43.1,30.07,West,275,0.0,0.0,86,0.00,,---,0.00,VWS V13.01,2013-10-22 13:02:00,
2013-10-22 08:03:00,47.2,43.2,30.06,West,275,0.0,0.0,86,0.00,,---,0.00,VWS V13.01,2013-10-22 13:03:00,
2013-10-22 08:04:00,47.3,43.3,30.06,West,275,2.0,4.0,86,0.00,,---,0.00,VWS V13.01,2013-10-22 13:04:00,
2013-10-22 08:05:00,47.3,42.7,30.06,West,275,3.0,5.0,84,0.00,,---,0.00,VWS V13.01,2013-10-22 13:05:00,
2013-10-22 08:06:00,47.2,42.6,30.06,West,275,0.0,5.0,84,0.00,,---,0.00,VWS V13.01,2013-10-22 13:06:00,
2013-10-22 08:07:00,47.3,42.7,30.06,West,275,0.0,5.0,84,0.00,,---,0.00,VWS V13.01,2013-10-22 13:07:00,
2013-10-22 08:08:00,47.3,42.7,30.07,West,275,0.0,5.0,84,0.00,,---,0.00,VWS V13.01,2013-10-22 13:08:00,
2013-10-22 08:09:00,47.4,43.1,30.06,West,275,0.0,5.0,85,0.00,,---,0.00,VWS V13.01,2013-10-22 13:09:00,
2013-10-22 08:10:00,47.5,43.2,30.06,West,275,0.0,5.0,85,0.00,,---,0.00,VWS V13.01,2013-10-22 13:10:00,
2013-10-22 08:11:00,47.6,43.3,30.07,West,275,0.0,5.0,85,0.00,,---,0.00,VWS V13.01,2013-10-22 13:11:00,
2013-10-22 08:12:00,47.7,43.4,30.07,West,275,0.0,5.0,85,0.00,,---,0.00,VWS V13.01,2013-10-22 13:12:00,
2013-10-22 08:13:00,47.8,43.5,30.07,West,275,0.0,5.0,85,0.00,,---,0.00,VWS V13.01,2013-10-22 13:13:00,
2013-10-22 08:14:00,47.9,43.3,30.06,West,275,0.0,5.0,84,0.00,,---,0.00,VWS V13.01,2013-10-22 13:14:00,
2013-10-22 08:15:00,48.0,43.4,30.06,West,275,0.0,5.0,84,0.00,,---,0.00,VWS V13.01,2013-10-22 13:15:00,
2013-10-22 08:16:00,48.1,43.8,30.06,West,275,2.0,5.0,85,0.00,,---,0.00,VWS V13.01,2013-10-22 13:16:00,
2013-10-22 08:17:00,48.1,43.2,30.06,West,275,3.0,6.0,83,0.00,,---,0.00,VWS V13.01,2013-10-22 13:17:00,
2013-10-22 08:18:00,48.1,42.5,30.06,West,275,2.0,6.0,81,0.00,,---,0.00,VWS V13.01,2013-10-22 13:18:00,
2013-10-22 08:19:00,48.1,42.5,30.06,West,275,2.0,6.0,81,0.00,,---,0.00,VWS V13.01,2013-10-22 13:19:00,
2013-10-22 08:20:00,48.2,43.0,30.06,West,275,5.0,6.0,82,0.00,,---,0.00,VWS V13.01,2013-10-22 13:20:00,
2013-10-22 08:21:00,48.1,42.2,30.06,West,275,2.0,6.0,80,0.00,,---,0.00,VWS V13.01,2013-10-22 13:21:00,
2013-10-22 08:22:00,48.1,42.2,30.06,West,275,4.0,6.0,80,0.00,,---,0.00,VWS V13.01,2013-10-22 13:22:00,
2013-10-22 08:23:00,48.1,42.2,30.06,West,275,2.0,6.0,80,0.00,,---,0.00,VWS V13.01,2013-10-22 13:23:00,
2013-10-22 08:24:00,48.2,42.7,30.06,West,275,3.0,6.0,81,0.00,,---,0.00,VWS V13.01,2013-10-22 13:24:00,
2013-10-22 08:25:00,48.2,42.3,30.06,West,275,1.0,6.0,80,0.00,,---,0.00,VWS V13.01,2013-10-22 13:25:00,
2013-10-22 08:26:00,48.3,42.8,30.06,West,275,4.0,6.0,81,0.00,,---,0.00,VWS V13.01,2013-10-22 13:26:00,
2013-10-22 08:27:00,48.3,42.4,30.06,West,275,3.0,6.0,80,0.00,,---,0.00,VWS V13.01,2013-10-22 13:27:00,
2013-10-22 08:28:00,48.3,42.8,30.06,West,275,3.0,6.0,81,0.00,,---,0.00,VWS V13.01,2013-10-22 13:28:00,
2013-10-22 08:29:00,48.4,42.8,30.06,West,275,2.0,6.0,81,0.00,,---,0.00,VWS V13.01,2013-10-22 13:29:00,
2013-10-22 08:30:00,48.4,42.5,30.06,West,275,2.0,6.0,80,0.00,,---,0.00,VWS V13.01,2013-10-22 13:30:00,
2013-10-22 08:31:00,48.5,42.6,30.06,West,275,3.0,3.0,80,0.00,,---,0.00,VWS V13.01,2013-10-22 13:31:00,
2013-10-22 08:32:00,48.5,42.6,30.06,West,275,3.0,5.0,80,0.00,,---,0.00,VWS V13.01,2013-10-22 13:32:00,
2013-10-22 08:33:00,48.6,42.7,30.06,West,275,2.0,5.0,80,0.00,,---,0.00,VWS V13.01,2013-10-22 13:33:00,
2013-10-22 08:34:00,48.7,43.5,30.06,West,275,6.0,6.0,82,0.00,,---,0.00,VWS V13.01,2013-10-22 13:34:00,
2013-10-22 08:35:00,48.7,43.1,30.06,West,275,3.0,6.0,81,0.00,,---,0.00,VWS V13.01,2013-10-22 13:35:00,
2013-10-22 08:36:00,48.8,42.9,30.06,West,275,2.0,6.0,80,0.00,,---,0.00,VWS V13.01,2013-10-22 13:36:00,
2013-10-22 08:37:00,48.8,42.9,30.06,West,275,1.0,6.0,80,0.00,,---,0.00,VWS V13.01,2013-10-22 13:37:00,
2013-10-22 08:38:00,49.0,43.1,30.06,West,275,4.0,6.0,80,0.00,,---,0.00,VWS V13.01,2013-10-22 13:38:00,
2013-10-22 08:39:00,49.0,42.8,30.06,West,275,1.0,6.0,79,0.00,,---,0.00,VWS V13.01,2013-10-22 13:39:00,
2013-10-22 08:40:00,49.1,42.9,30.06,West,275,3.0,6.0,79,0.00,,---,0.00,VWS V13.01,2013-10-22 13:40:00,
2013-10-22 08:41:00,49.1,42.5,30.06,West,275,4.0,7.0,78,0.00,,---,0.00,VWS V13.01,2013-10-22 13:41:00,
2013-10-22 08:42:00,49.2,42.3,30.06,West,275,5.0,7.0,77,0.00,,---,0.00,VWS V13.01,2013-10-22 13:42:00,
2013-10-22 08:43:00,49.2,42.3,30.06,West,275,2.0,7.0,77,0.00,,---,0.00,VWS V13.01,2013-10-22 13:43:00,
2013-10-22 08:44:00,49.2,42.3,30.06,West,275,1.0,7.0,77,0.00,,---,0.00,VWS V13.01,2013-10-22 13:44:00,
2013-10-22 08:45:00,49.2,42.0,30.06,West,275,2.0,7.0,76,0.00,,---,0.00,VWS V13.01,2013-10-22 13:45:00,
2013-10-22 08:46:00,49.2,42.0,30.06,West,275,6.0,7.0,76,0.00,,---,0.00,VWS V13.01,2013-10-22 13:46:00,
2013-10-22 08:47:00,49.3,42.1,30.06,West,270,3.0,7.0,76,0.00,,---,0.00,VWS V13.01,2013-10-22 13:47:00,
2013-10-22 08:48:00,49.4,42.5,30.06,West,270,4.0,7.0,77,0.00,,---,0.00,VWS V13.01,2013-10-22 13:48:00,
2013-10-22 08:49:00,49.4,42.5,30.06,West,270,2.0,7.0,77,0.00,,---,0.00,VWS V13.01,2013-10-22 13:49:00,
2013-10-22 08:50:00,49.5,41.9,30.06,West,270,5.0,7.0,75,0.00,,---,0.00,VWS V13.01,2013-10-22 13:50:00,
2013-10-22 08:51:00,49.6,42.4,30.06,West,270,7.0,7.0,76,0.00,,---,0.00,VWS V13.01,2013-10-22 13:51:00,
2013-10-22 08:52:00,49.6,41.3,30.06,West,263,3.0,10.0,73,0.00,,---,0.00,VWS V13.01,2013-10-22 13:52:00,
2013-10-22 08:53:00,49.6,41.3,30.06,West,263,4.0,10.0,73,0.00,,---,0.00,VWS V13.01,2013-10-22 13:53:00,
2013-10-22 08:54:00,49.6,41.3,30.06,West,263,4.0,10.0,73,0.00,,---,0.00,VWS V13.01,2013-10-22 13:54:00,
2013-10-22 08:55:00,49.6,41.3,30.06,West,263,4.0,10.0,73,0.00,,---,0.00,VWS V13.01,2013-10-22 13:55:00,
2013-10-22 08:56:00,49.6,41.7,30.06,West,263,2.0,10.0,74,0.00,,---,0.00,VWS V13.01,2013-10-22 13:56:00,
2013-10-22 08:57:00,49.6,41.3,30.06,West,263,3.0,10.0,73,0.00,,---,0.00,VWS V13.01,2013-10-22 13:57:00,
2013-10-22 08:58:00,49.7,41.4,30.06,West,263,4.0,10.0,73,0.00,,---,0.00,VWS V13.01,2013-10-22 13:58:00,
2013-10-22 08:59:00,49.7,41.0,30.06,West,261,3.0,10.0,72,0.00,,---,0.00,VWS V13.01,2013-10-22 13:59:00,
2013-10-22 09:00:00,49.7,41.4,30.06,West,260,2.0,10.0,73,0.00,,---,0.00,VWS V13.01,2013-10-22 14:00:00,
2013-10-22 09:01:00,49.7,41.4,30.06,West,260,1.0,3.0,73,0.00,,---,0.00,VWS V13.01,2013-10-22 14:01:00,
2013-10-22 09:02:00,49.8,41.9,30.06,West,260,0.0,3.0,74,0.00,,---,0.00,VWS V13.01,2013-10-22 14:02:00,
2013-10-22 09:03:00,49.9,41.6,30.05,West,260,5.0,8.0,73,0.00,,---,0.00,VWS V13.01,2013-10-22 14:03:00,
2013-10-22 09:04:00,49.9,40.9,30.05,West,259,10.0,10.0,71,0.00,,---,0.00,VWS V13.01,2013-10-22 14:04:00,
2013-10-22 09:05:00,50.0,41.3,30.05,WSW,257,2.0,10.0,72,0.00,,---,0.00,VWS V13.01,2013-10-22 14:05:00,
2013-10-22 09:06:00,50.1,41.1,30.05,WSW,257,6.0,10.0,71,0.00,,---,0.00,VWS V13.01,2013-10-22 14:06:00,
2013-10-22 09:07:00,50.2,41.2,30.05,WSW,257,7.0,10.0,71,0.00,,---,0.00,VWS V13.01,2013-10-22 14:07:00,
2013-10-22 09:08:00,50.2,40.4,30.05,WSW,256,4.0,10.0,69,0.00,,---,0.00,VWS V13.01,2013-10-22 14:08:00,
2013-10-22 09:09:00,50.2,40.4,30.05,WSW,256,3.0,10.0,69,0.00,,---,0.00,VWS V13.01,2013-10-22 14:09:00,
2013-10-22 09:10:00,50.2,40.4,30.05,WSW,256,6.0,10.0,69,0.00,,---,0.00,VWS V13.01,2013-10-22 14:10:00,
2013-10-22 09:11:00,50.3,40.2,30.05,WSW,256,2.0,10.0,68,0.00,,---,0.00,VWS V13.01,2013-10-22 14:11:00,
2013-10-22 09:12:00,50.3,40.5,30.05,WSW,256,3.0,10.0,69,0.00,,---,0.00,VWS V13.01,2013-10-22 14:12:00,
2013-10-22 09:13:00,50.3,40.2,30.05,WSW,256,5.0,10.0,68,0.00,,---,0.00,VWS V13.01,2013-10-22 14:13:00,
2013-10-22 09:14:00,50.3,40.2,30.05,WSW,256,6.0,10.0,68,0.00,,---,0.00,VWS V13.01,2013-10-22 14:14:00,
2013-10-22 09:15:00,50.4,40.2,30.05,WSW,252,6.0,10.0,68,0.00,,---,0.00,VWS V13.01,2013-10-22 14:15:00,
2013-10-22 09:16:00,50.4,39.5,30.05,WSW,248,7.0,10.0,66,0.00,,---,0.00,VWS V13.01,2013-10-22 14:16:00,
2013-10-22 09:17:00,50.4,39.5,30.05,WSW,248,4.0,10.0,66,0.00,,---,0.00,VWS V13.01,2013-10-22 14:17:00,
2013-10-22 09:18:00,50.4,39.5,30.05,WSW,248,3.0,10.0,66,0.00,,---,0.00,VWS V13.01,2013-10-22 14:18:00,
2013-10-22 09:19:00,50.5,40.0,30.05,WSW,248,4.0,10.0,67,0.00,,---,0.00,VWS V13.01,2013-10-22 14:19:00,
2013-10-22 09:20:00,50.6,41.2,30.05,WSW,248,3.0,10.0,70,0.00,,---,0.00,VWS V13.01,2013-10-22 14:20:00,
2013-10-22 09:21:00,50.8,41.0,30.05,SW,220,10.0,10.0,69,0.00,,---,0.00,VWS V13.01,2013-10-22 14:21:00,
2013-10-22 09:22:00,50.7,39.0,30.05,SW,217,6.0,10.0,64,0.00,,---,0.00,VWS V13.01,2013-10-22 14:22:00,
2013-10-22 09:23:00,50.6,38.9,30.05,SW,217,5.0,10.0,64,0.00,,---,0.00,VWS V13.01,2013-10-22 14:23:00,
2013-10-22 09:24:00,50.6,38.9,30.06,SSW,213,3.0,10.0,64,0.00,,---,0.00,VWS V13.01,2013-10-22 14:24:00,
2013-10-22 09:25:00,50.5,39.2,30.06,SSW,213,4.0,10.0,65,0.00,,---,0.00,VWS V13.01,2013-10-22 14:25:00,
2013-10-22 09:26:00,50.5,39.6,30.05,SSW,213,5.0,10.0,66,0.00,,---,0.00,VWS V13.01,2013-10-22 14:26:00,
2013-10-22 09:27:00,50.6,39.7,30.05,SSW,213,5.0,10.0,66,0.00,,---,0.00,VWS V13.01,2013-10-22 14:27:00,
2013-10-22 09:28:00,50.7,40.2,30.05,SSW,213,3.0,10.0,67,0.00,,---,0.00,VWS V13.01,2013-10-22 14:28:00,
2013-10-22 09:29:00,50.7,39.8,30.05,SSW,213,4.0,10.0,66,0.00,,---,0.00,VWS V13.01,2013-10-22 14:29:00,
2013-10-22 09:30:00,50.8,39.9,30.05,SSW,211,4.0,10.0,66,0.00,,---,0.00,VWS V13.01,2013-10-22 14:30:00,
2013-10-22 09:31:00,50.9,39.2,30.05,SSW,211,5.0,5.0,64,0.00,,---,0.00,VWS V13.01,2013-10-22 14:31:00,
2013-10-22 09:32:00,51.0,40.4,30.05,SSW,211,5.0,6.0,67,0.00,,---,0.00,VWS V13.01,2013-10-22 14:32:00,
2013-10-22 09:33:00,51.1,39.0,30.05,SSW,211,3.0,8.0,63,0.00,,---,0.00,VWS V13.01,2013-10-22 14:33:00,
2013-10-22 09:34:00,51.2,39.5,30.05,SSW,211,6.0,8.0,64,0.00,,---,0.00,VWS V13.01,2013-10-22 14:34:00,
2013-10-22 09:35:00,51.1,38.5,30.05,SSW,211,4.0,8.0,62,0.00,,---,0.00,VWS V13.01,2013-10-22 14:35:00,
2013-10-22 09:36:00,51.2,39.0,30.05,SSW,211,8.0,8.0,63,0.00,,---,0.00,VWS V13.01,2013-10-22 14:36:00,
2013-10-22 09:37:00,51.2,38.6,30.05,SSW,203,6.0,11.0,62,0.00,,---,0.00,VWS V13.01,2013-10-22 14:37:00,
2013-10-22 09:38:00,51.2,38.6,30.05,SSW,203,2.0,11.0,62,0.00,,---,0.00,VWS V13.01,2013-10-22 14:38:00,
2013-10-22 09:39:00,51.3,39.2,30.05,SSW,203,6.0,11.0,63,0.00,,---,0.00,VWS V13.01,2013-10-22 14:39:00,
2013-10-22 09:40:00,51.3,39.2,30.04,SSW,203,0.0,11.0,63,0.00,,---,0.00,VWS V13.01,2013-10-22 14:40:00,
2013-10-22 09:41:00,51.4,39.7,30.05,SSW,203,3.0,11.0,64,0.00,,---,0.00,VWS V13.01,2013-10-22 14:41:00,
2013-10-22 09:42:00,51.4,38.4,30.04,SSW,203,2.0,11.0,61,0.00,,---,0.00,VWS V13.01,2013-10-22 14:42:00,
2013-10-22 09:43:00,51.5,39.7,30.05,SSW,203,5.0,11.0,64,0.00,,---,0.00,VWS V13.01,2013-10-22 14:43:00,
2013-10-22 09:44:00,51.5,38.9,30.05,SSW,203,5.0,11.0,62,0.00,,---,0.00,VWS V13.01,2013-10-22 14:44:00,
2013-10-22 09:45:00,51.6,39.0,30.04,SSW,203,2.0,11.0,62,0.00,,---,0.00,VWS V13.01,2013-10-22 14:45:00,
2013-10-22 09:46:00,51.6,39.4,30.05,SSW,203,2.0,11.0,63,0.00,,---,0.00,VWS V13.01,2013-10-22 14:46:00,
2013-10-22 09:47:00,51.7,39.1,30.04,SSW,203,4.0,11.0,62,0.00,,---,0.00,VWS V13.01,2013-10-22 14:47:00,
2013-10-22 09:48:00,51.8,38.8,30.04,SSW,203,3.0,11.0,61,0.00,,---,0.00,VWS V13.01,2013-10-22 14:48:00,
2013-10-22 09:49:00,51.8,39.2,30.05,SSW,203,3.0,11.0,62,0.00,,---,0.00,VWS V13.01,2013-10-22 14:49:00,
2013-10-22 09:50:00,51.9,38.9,30.05,SSW,203,3.0,11.0,61,0.00,,---,0.00,VWS V13.01,2013-10-22 14:50:00,
2013-10-22 09:51:00,51.9,38.9,30.05,SSW,203,4.0,11.0,61,0.00,,---,0.00,VWS V13.01,2013-10-22 14:51:00,
2013-10-22 09:52:00,51.9,39.3,30.05,SSW,203,2.0,11.0,62,0.00,,---,0.00,VWS V13.01,2013-10-22 14:52:00,
2013-10-22 09:53:00,51.9,38.9,30.04,SSW,203,4.0,11.0,61,0.00,,---,0.00,VWS V13.01,2013-10-22 14:53:00,
2013-10-22 09:54:00,51.8,38.8,30.04,SSW,203,4.0,11.0,61,0.00,,---,0.00,VWS V13.01,2013-10-22 14:54:00,
2013-10-22 09:55:00,51.8,39.6,30.04,SSW,203,3.0,11.0,63,0.00,,---,0.00,VWS V13.01,2013-10-22 14:55:00,
2013-10-22 09:56:00,51.9,40.1,30.04,SSW,203,3.0,11.0,64,0.00,,---,0.00,VWS V13.01,2013-10-22 14:56:00,
2013-10-22 09:57:00,52.0,39.8,30.04,SSW,203,3.0,11.0,63,0.00,,---,0.00,VWS V13.01,2013-10-22 14:57:00,
2013-10-22 09:58:00,52.1,39.5,30.04,SSW,203,4.0,11.0,62,0.00,,---,0.00,VWS V13.01,2013-10-22 14:58:00,
2013-10-22 09:59:00,52.1,39.5,30.04,SSW,203,6.0,11.0,62,0.00,,---,0.00,VWS V13.01,2013-10-22 14:59:00,
2013-10-22 10:00:00,52.1,39.1,30.04,SSW,203,6.0,11.0,61,0.00,,---,0.00,VWS V13.01,2013-10-22 15:00:00,
2013-10-22 10:01:00,52.1,39.1,30.04,SSW,203,3.0,7.0,61,0.00,,---,0.00,VWS V13.01,2013-10-22 15:01:00,
2013-10-22 10:02:00,52.1,39.1,30.04,SSW,203,3.0,7.0,61,0.00,,---,0.00,VWS V13.01,2013-10-22 15:02:00,
2013-10-22 10:03:00,52.2,40.4,30.04,SSW,203,5.0,7.0,64,0.00,,---,0.00,VWS V13.01,2013-10-22 15:03:00,
2013-10-22 10:04:00,52.3,39.7,30.04,SSW,203,6.0,9.0,62,0.00,,---,0.00,VWS V13.01,2013-10-22 15:04:00,
2013-10-22 10:05:00,52.4,38.9,30.04,SSW,203,4.0,9.0,60,0.00,,---,0.00,VWS V13.01,2013-10-22 15:05:00,
2013-10-22 10:06:00,52.4,39.8,30.04,SSW,203,3.0,9.0,62,0.00,,---,0.00,VWS V13.01,2013-10-22 15:06:00,
2013-10-22 10:07:00,52.6,40.4,30.04,SSW,203,5.0,9.0,63,0.00,,---,0.00,VWS V13.01,2013-10-22 15:07:00,
2013-10-22 10:08:00,52.6,39.1,30.04,SSW,203,4.0,10.0,60,0.00,,---,0.00,VWS V13.01,2013-10-22 15:08:00,
2013-10-22 10:09:00,52.6,39.1,30.04,SSW,203,3.0,10.0,60,0.00,,---,0.00,VWS V13.01,2013-10-22 15:09:00,
2013-10-22 10:10:00,52.6,39.5,30.04,SSW,203,4.0,10.0,61,0.00,,---,0.00,VWS V13.01,2013-10-22 15:10:00,
2013-10-22 10:11:00,52.6,39.5,30.04,SSW,203,4.0,10.0,61,0.00,,---,0.00,VWS V13.01,2013-10-22 15:11:00,
2013-10-22 10:12:00,52.7,40.1,30.04,SSW,203,5.0,10.0,62,0.00,,---,0.00,VWS V13.01,2013-10-22 15:12:00,
2013-10-22 10:13:00,52.9,40.2,30.04,SSW,203,3.0,10.0,62,0.00,,---,0.00,VWS V13.01,2013-10-22 15:13:00,
2013-10-22 10:14:00,52.9,39.0,30.04,SSW,203,3.0,10.0,59,0.00,,---,0.00,VWS V13.01,2013-10-22 15:14:00,
2013-10-22 10:15:00,52.9,39.0,30.04,SSW,203,3.0,10.0,59,0.00,,---,0.00,VWS V13.01,2013-10-22 15:15:00,
2013-10-22 10:16:00,53.0,39.1,30.04,SSW,203,2.0,10.0,59,0.00,,---,0.00,VWS V13.01,2013-10-22 15:16:00,
2013-10-22 10:17:00,53.0,38.6,30.04,SSW,203,5.0,10.0,58,0.00,,---,0.00,VWS V13.01,2013-10-22 15:17:00,
2013-10-22 10:18:00,53.0,38.6,30.04,SSW,203,2.0,10.0,58,0.00,,---,0.00,VWS V13.01,2013-10-22 15:18:00,
2013-10-22 10:19:00,53.0,39.1,30.04,SSW,203,2.0,10.0,59,0.00,,---,0.00,VWS V13.01,2013-10-22 15:19:00,
2013-10-22 10:20:00,53.0,39.1,30.04,SSW,203,3.0,10.0,59,0.00,,---,0.00,VWS V13.01,2013-10-22 15:20:00,
2013-10-22 10:21:00,53.1,39.2,30.04,SSW,203,4.0,10.0,59,0.00,,---,0.00,VWS V13.01,2013-10-22 15:21:00,
2013-10-22 10:22:00,53.1,38.7,30.04,SSW,203,3.0,10.0,58,0.00,,---,0.00,VWS V13.01,2013-10-22 15:22:00,
2013-10-22 10:23:00,53.1,39.2,30.04,SSW,203,1.0,10.0,59,0.00,,---,0.00,VWS V13.01,2013-10-22 15:23:00,
2013-10-22 10:24:00,53.2,38.4,30.04,SSW,203,5.0,10.0,57,0.00,,---,0.00,VWS V13.01,2013-10-22 15:24:00,
2013-10-22 10:25:00,53.1,38.3,30.04,SSW,203,3.0,10.0,57,0.00,,---,0.00,VWS V13.01,2013-10-22 15:25:00,
2013-10-22 10:26:00,53.2,38.8,30.04,SSW,203,6.0,10.0,58,0.00,,---,0.00,VWS V13.01,2013-10-22 15:26:00,
2013-10-22 10:27:00,53.1,37.8,30.04,SSW,203,3.0,10.0,56,0.00,,---,0.00,VWS V13.01,2013-10-22 15:27:00,
2013-10-22 10:28:00,53.0,38.2,30.04,SSW,203,0.0,10.0,57,0.00,,---,0.00,VWS V13.01,2013-10-22 15:28:00,
2013-10-22 10:29:00,53.0,38.6,30.04,SSW,203,1.0,10.0,58,0.00,,---,0.00,VWS V13.01,2013-10-22 15:29:00,
2013-10-22 10:30:00,53.0,39.5,30.04,SSW,203,2.0,10.0,60,0.00,,---,0.00,VWS V13.01,2013-10-22 15:30:00,
2013-10-22 10:31:00,53.1,38.3,30.04,SSW,203,0.0,3.0,57,0.00,,---,0.00,VWS V13.01,2013-10-22 15:31:00,
2013-10-22 10:32:00,53.2,38.4,30.04,SSW,203,0.0,3.0,57,0.00,,---,0.00,VWS V13.01,2013-10-22 15:32:00,
2013-10-22 10:33:00,53.2,39.3,30.04,SSW,203,3.0,3.0,59,0.00,,---,0.00,VWS V13.01,2013-10-22 15:33:00,
2013-10-22 10:34:00,53.5,39.1,30.04,SSW,203,2.0,4.0,58,0.00,,---,0.00,VWS V13.01,2013-10-22 15:34:00,
2013-10-22 10:35:00,53.5,39.1,30.04,SSW,203,3.0,4.0,58,0.00,,---,0.00,VWS V13.01,2013-10-22 15:35:00,
2013-10-22 10:36:00,53.7,38.8,30.04,SSW,203,3.0,4.0,57,0.00,,---,0.00,VWS V13.01,2013-10-22 15:36:00,
2013-10-22 10:37:00,53.7,38.8,30.04,SSW,203,2.0,4.0,57,0.00,,---,0.00,VWS V13.01,2013-10-22 15:37:00,
2013-10-22 10:38:00,53.9,39.0,30.04,SSW,203,2.0,4.0,57,0.00,,---,0.00,VWS V13.01,2013-10-22 15:38:00,
2013-10-22 10:39:00,54.0,39.6,30.04,SSW,203,3.0,4.0,58,0.00,,---,0.00,VWS V13.01,2013-10-22 15:39:00,
2013-10-22 10:40:00,54.0,39.6,30.04,SSW,203,5.0,5.0,58,0.00,,---,0.00,VWS V13.01,2013-10-22 15:40:00,
2013-10-22 10:41:00,54.1,38.8,30.04,SSW,203,1.0,5.0,56,0.00,,---,0.00,VWS V13.01,2013-10-22 15:41:00,
2013-10-22 10:42:00,54.2,38.4,30.04,SSW,203,0.0,5.0,55,0.00,,---,0.00,VWS V13.01,2013-10-22 15:42:00,
2013-10-22 10:43:00,54.3,39.0,30.03,SSW,203,0.0,5.0,56,0.00,,---,0.00,VWS V13.01,2013-10-22 15:43:00,
2013-10-22 10:44:00,54.4,39.0,30.03,SSW,203,2.0,5.0,56,0.00,,---,0.00,VWS V13.01,2013-10-22 15:44:00,
2013-10-22 10:45:00,54.4,39.0,30.03,SSW,203,3.0,5.0,56,0.00,,---,0.00,VWS V13.01,2013-10-22 15:45:00,
2013-10-22 10:46:00,54.5,39.6,30.03,SSW,203,0.0,5.0,57,0.00,,---,0.00,VWS V13.01,2013-10-22 15:46:00,
2013-10-22 10:47:00,54.5,39.1,30.03,SSW,203,2.0,5.0,56,0.00,,---,0.00,VWS V13.01,2013-10-22 15:47:00,
2013-10-22 10:48:00,54.6,38.8,30.03,SSW,203,1.0,5.0,55,0.00,,---,0.00,VWS V13.01,2013-10-22 15:48:00,
2013-10-22 10:49:00,54.6,38.8,30.03,SSW,203,2.0,5.0,55,0.00,,---,0.00,VWS V13.01,2013-10-22 15:49:00,
2013-10-22 10:50:00,54.7,39.3,30.03,SSW,203,3.0,5.0,56,0.00,,---,0.00,VWS V13.01,2013-10-22 15:50:00,
2013-10-22 10:51:00,54.8,39.0,30.03,SSW,203,3.0,5.0,55,0.00,,---,0.00,VWS V13.01,2013-10-22 15:51:00,
2013-10-22 10:52:00,54.8,39.0,30.03,SSW,203,6.0,6.0,55,0.00,,---,0.00,VWS V13.01,2013-10-22 15:52:00,
2013-10-22 10:53:00,54.8,38.5,30.03,SSW,203,3.0,6.0,54,0.00,,---,0.00,VWS V13.01,2013-10-22 15:53:00,
2013-10-22 10:54:00,54.8,38.5,30.03,SSW,203,2.0,6.0,54,0.00,,---,0.00,VWS V13.01,2013-10-22 15:54:00,
2013-10-22 10:55:00,54.8,39.0,30.03,SSW,203,5.0,6.0,55,0.00,,---,0.00,VWS V13.01,2013-10-22 15:55:00,
2013-10-22 10:56:00,54.8,38.5,30.03,SSW,203,2.0,6.0,54,0.00,,---,0.00,VWS V13.01,2013-10-22 15:56:00,
2013-10-22 10:57:00,54.8,39.4,30.03,SSW,203,0.0,6.0,56,0.00,,---,0.00,VWS V13.01,2013-10-22 15:57:00,
2013-10-22 10:58:00,54.9,40.0,30.03,SSW,203,3.0,6.0,57,0.00,,---,0.00,VWS V13.01,2013-10-22 15:58:00,
2013-10-22 10:59:00,55.0,39.2,30.03,SSW,203,0.0,6.0,55,0.00,,---,0.00,VWS V13.01,2013-10-22 15:59:00,
2013-10-22 11:00:00,55.1,39.2,30.03,SSW,203,1.0,6.0,55,0.00,,---,0.00,VWS V13.01,2013-10-22 16:00:00,
2013-10-22 11:01:00,55.1,39.2,30.03,SSW,203,3.0,5.0,55,0.00,,---,0.00,VWS V13.01,2013-10-22 16:01:00,
2013-10-22 11:02:00,55.1,39.2,30.03,SSW,203,3.0,5.0,55,0.00,,---,0.00,VWS V13.01,2013-10-22 16:02:00,
2013-10-22 11:03:00,55.1,39.7,30.02,SSW,203,2.0,5.0,56,0.00,,---,0.00,VWS V13.01,2013-10-22 16:03:00,
2013-10-22 11:04:00,55.1,39.7,30.02,SSW,203,3.0,5.0,56,0.00,,---,0.00,VWS V13.01,2013-10-22 16:04:00,
2013-10-22 11:05:00,55.1,39.2,30.03,SSW,203,3.0,6.0,55,0.00,,---,0.00,VWS V13.01,2013-10-22 16:05:00,
2013-10-22 11:06:00,55.1,39.2,30.02,SSW,203,0.0,6.0,55,0.00,,---,0.00,VWS V13.01,2013-10-22 16:06:00,
2013-10-22 11:07:00,55.1,39.2,30.02,SSW,203,4.0,6.0,55,0.00,,---,0.00,VWS V13.01,2013-10-22 16:07:00,
2013-10-22 11:08:00,55.0,38.7,30.02,SSW,203,2.0,6.0,54,0.00,,---,0.00,VWS V13.01,2013-10-22 16:08:00,
2013-10-22 11:09:00,55.0,38.7,30.02,SSW,203,1.0,6.0,54,0.00,,---,0.00,VWS V13.01,2013-10-22 16:09:00,
2013-10-22 11:10:00,55.1,40.6,30.02,SSW,203,3.0,6.0,58,0.00,,---,0.00,VWS V13.01,2013-10-22 16:10:00,
2013-10-22 11:11:00,55.1,39.7,30.02,SSW,203,2.0,6.0,56,0.00,,---,0.00,VWS V13.01,2013-10-22 16:11:00,
2013-10-22 11:12:00,55.1,40.6,30.02,SSW,203,3.0,6.0,58,0.00,,---,0.00,VWS V13.01,2013-10-22 16:12:00,
2013-10-22 11:13:00,55.2,39.8,30.02,SSW,203,0.0,6.0,56,0.00,,---,0.00,VWS V13.01,2013-10-22 16:13:00,
2013-10-22 11:14:00,55.2,39.8,30.02,SSW,203,2.0,6.0,56,0.00,,---,0.00,VWS V13.01,2013-10-22 16:14:00,
2013-10-22 11:15:00,55.3,40.8,30.02,SSW,203,0.0,6.0,58,0.00,,---,0.00,VWS V13.01,2013-10-22 16:15:00,
2013-10-22 11:16:00,55.3,39.9,30.02,SSW,203,0.0,6.0,56,0.00,,---,0.00,VWS V13.01,2013-10-22 16:16:00,
2013-10-22 11:17:00,55.4,39.5,30.02,SSW,203,0.0,6.0,55,0.00,,---,0.00,VWS V13.01,2013-10-22 16:17:00,
2013-10-22 11:18:00,55.4,39.5,30.02,SSW,203,0.0,6.0,55,0.00,,---,0.00,VWS V13.01,2013-10-22 16:18:00,
2013-10-22 11:19:00,55.5,40.5,30.01,SSW,203,0.0,6.0,57,0.00,,---,0.00,VWS V13.01,2013-10-22 16:19:00,
2013-10-22 11:20:00,55.6,41.5,30.02,SSW,203,3.0,6.0,59,0.00,,---,0.00,VWS V13.01,2013-10-22 16:20:00,
2013-10-22 11:21:00,55.7,39.8,30.01,SSW,203,5.0,6.0,55,0.00,,---,0.00,VWS V13.01,2013-10-22 16:21:00,
2013-10-22 11:22:00,55.8,38.9,30.02,SSW,203,7.0,7.0,53,0.00,,---,0.00,VWS V13.01,2013-10-22 16:22:00,
2013-10-22 11:23:00,55.8,38.5,30.02,SSW,203,3.0,7.0,52,0.00,,---,0.00,VWS V13.01,2013-10-22 16:23:00,
2013-10-22 11:24:00,55.8,38.9,30.02,SSW,203,5.0,7.0,53,0.00,,---,0.00,VWS V13.01,2013-10-22 16:24:00,
2013-10-22 11:25:00,55.7,37.9,30.02,SSW,203,4.0,7.0,51,0.00,,---,0.00,VWS V13.01,2013-10-22 16:25:00,
2013-10-22 11:26:00,55.7,37.9,30.02,SSW,203,1.0,7.0,51,0.00,,---,0.00,VWS V13.01,2013-10-22 16:26:00,
2013-10-22 11:27:00,55.6,38.3,30.02,SSW,203,0.0,7.0,52,0.00,,---,0.00,VWS V13.01,2013-10-22 16:27:00,
2013-10-22 11:28:00,55.7,38.8,30.01,SSW,203,0.0,7.0,53,0.00,,---,0.00,VWS V13.01,2013-10-22 16:28:00,
2013-10-22 11:29:00,55.7,39.3,30.01,SSW,203,0.0,7.0,54,0.00,,---,0.00,VWS V13.01,2013-10-22 16:29:00,
2013-10-22 11:30:00,55.9,40.0,30.01,SSW,203,5.0,7.0,55,0.00,,---,0.00,VWS V13.01,2013-10-22 16:30:00,
2013-10-22 11:31:00,55.9,37.5,30.01,SSW,203,6.0,6.0,50,0.00,,---,0.00,VWS V13.01,2013-10-22 16:31:00,
2013-10-22 12:22:00,58.2,41.7,29.97,SSW,203,4.0,6.0,54,0.00,,---,0.00,VWS V13.01,2013-10-22 17:22:00,
2013-10-22 12:23:00,58.2,39.2,29.97,SSW,203,3.0,6.0,49,0.00,,---,0.00,VWS V13.01,2013-10-22 17:23:00,
2013-10-22 12:24:00,58.3,39.8,29.97,SSW,203,4.0,7.0,50,0.00,,---,0.00,VWS V13.01,2013-10-22 17:24:00,
2013-10-22 12:25:00,58.4,39.8,29.97,SSW,203,3.0,7.0,50,0.00,,---,0.00,VWS V13.01,2013-10-22 17:25:00,
2013-10-22 12:26:00,58.4,39.3,29.96,SSW,203,5.0,7.0,49,0.00,,---,0.00,VWS V13.01,2013-10-22 17:26:00,
2013-10-22 12:27:00,58.5,38.9,29.96,SSW,203,3.0,7.0,48,0.00,,---,0.00,VWS V13.01,2013-10-22 17:27:00,
2013-10-22 12:28:00,58.5,38.4,29.96,SSW,203,4.0,7.0,47,0.00,,---,0.00,VWS V13.01,2013-10-22 17:28:00,
2013-10-22 12:29:00,58.5,39.4,29.96,SSW,203,1.0,7.0,49,0.00,,---,0.00,VWS V13.01,2013-10-22 17:29:00,
2013-10-22 12:30:00,58.5,38.9,29.96,SSW,203,6.0,7.0,48,0.00,,---,0.00,VWS V13.01,2013-10-22 17:30:00,
2013-10-22 12:31:00,58.5,37.8,29.96,SSW,203,3.0,5.0,46,0.00,,---,0.00,VWS V13.01,2013-10-22 17:31:00,
2013-10-22 12:32:00,58.4,37.7,29.96,SSW,203,0.0,5.0,46,0.00,,---,0.00,VWS V13.01,2013-10-22 17:32:00,
2013-10-22 12:33:00,58.4,38.8,29.96,SSW,203,2.0,5.0,48,0.00,,---,0.00,VWS V13.01,2013-10-22 17:33:00,
2013-10-22 12:34:00,58.4,39.3,29.96,SSW,203,4.0,5.0,49,0.00,,---,0.00,VWS V13.01,2013-10-22 17:34:00,
2013-10-22 12:35:00,58.3,37.6,29.96,SSW,203,0.0,5.0,46,0.00,,---,0.00,VWS V13.01,2013-10-22 17:35:00,
2013-10-22 12:36:00,58.3,37.1,29.96,SSW,203,0.0,5.0,45,0.00,,---,0.00,VWS V13.01,2013-10-22 17:36:00,
2013-10-22 12:37:00,58.3,38.7,29.96,SSW,203,4.0,6.0,48,0.00,,---,0.00,VWS V13.01,2013-10-22 17:37:00,
2013-10-22 12:38:00,58.5,39.4,29.96,SSW,203,7.0,7.0,49,0.00,,---,0.00,VWS V13.01,2013-10-22 17:38:00,
2013-10-22 12:39:00,58.6,39.5,29.96,SSW,203,3.0,10.0,49,0.00,,---,0.00,VWS V13.01,2013-10-22 17:39:00,
2013-10-22 12:40:00,58.6,39.5,29.96,SSW,204,5.0,10.0,49,0.00,,---,0.00,VWS V13.01,2013-10-22 17:40:00,
2013-10-22 12:41:00,58.6,40.0,29.95,SSW,204,3.0,10.0,50,0.00,,---,0.00,VWS V13.01,2013-10-22 17:41:00,
2013-10-22 12:42:00,58.6,39.0,29.95,SSW,204,4.0,10.0,48,0.00,,---,0.00,VWS V13.01,2013-10-22 17:42:00,
2013-10-22 12:43:00,58.6,38.5,29.95,SSW,204,1.0,10.0,47,0.00,,---,0.00,VWS V13.01,2013-10-22 17:43:00,
2013-10-22 12:44:00,58.7,40.1,29.95,SSW,204,0.0,10.0,50,0.00,,---,0.00,VWS V13.01,2013-10-22 17:44:00,
2013-10-22 12:45:00,58.7,39.6,29.95,SSW,203,0.0,10.0,49,0.00,,---,0.00,VWS V13.01,2013-10-22 17:45:00,
2013-10-22 12:46:00,58.9,40.3,29.94,SSW,203,3.0,10.0,50,0.00,,---,0.00,VWS V13.01,2013-10-22 17:46:00,
2013-10-22 12:47:00,59.0,39.9,29.95,SSW,204,2.0,10.0,49,0.00,,---,0.00,VWS V13.01,2013-10-22 17:47:00,
2013-10-22 12:48:00,59.0,39.4,29.95,SSW,203,4.0,10.0,48,0.00,,---,0.00,VWS V13.01,2013-10-22 17:48:00,
2013-10-22 12:49:00,59.0,39.4,29.94,SSW,204,3.0,10.0,48,0.00,,---,0.00,VWS V13.01,2013-10-22 17:49:00,
2013-10-22 12:50:00,59.0,39.4,29.95,SSW,204,4.0,10.0,48,0.00,,---,0.00,VWS V13.01,2013-10-22 17:50:00,
2013-10-22 12:51:00,59.0,39.4,29.94,SSW,204,4.0,10.0,48,0.00,,---,0.00,VWS V13.01,2013-10-22 17:51:00,
2013-10-22 12:52:00,59.0,38.8,29.95,SSW,203,3.0,10.0,47,0.00,,---,0.00,VWS V13.01,2013-10-22 17:52:00,
2013-10-22 12:53:00,59.0,39.4,29.95,SSW,203,5.0,10.0,48,0.00,,---,0.00,VWS V13.01,2013-10-22 17:53:00,
2013-10-22 12:54:00,59.0,39.9,29.94,SSW,209,5.0,11.0,49,0.00,,---,0.00,VWS V13.01,2013-10-22 17:54:00,
2013-10-22 12:55:00,59.0,39.4,29.94,SSW,209,6.0,11.0,48,0.00,,---,0.00,VWS V13.01,2013-10-22 17:55:00,
2013-10-22 12:56:00,59.0,39.4,29.94,SSW,209,4.0,11.0,48,0.00,,---,0.00,VWS V13.01,2013-10-22 17:56:00,
2013-10-22 12:57:00,59.0,40.4,29.94,SSW,209,3.0,11.0,50,0.00,,---,0.00,VWS V13.01,2013-10-22 17:57:00,
2013-10-22 12:58:00,59.0,40.4,29.94,SSW,209,2.0,11.0,50,0.00,,---,0.00,VWS V13.01,2013-10-22 17:58:00,
2013-10-22 12:59:00,59.1,39.5,29.94,SSW,209,6.0,11.0,48,0.00,,---,0.00,VWS V13.01,2013-10-22 17:59:00,
2013-10-22 13:00:00,59.0,38.8,29.94,SSW,209,2.0,11.0,47,0.00,,---,0.00,VWS V13.01,2013-10-22 18:00:00,
2013-10-22 13:01:00,59.0,39.4,29.94,SSW,209,3.0,6.0,48,0.00,,---,0.00,VWS V13.01,2013-10-22 18:01:00,
2013-10-22 13:02:00,59.0,38.8,29.94,SSW,209,0.0,6.0,47,0.00,,---,0.00,VWS V13.01,2013-10-22 18:02:00,
2013-10-22 13:03:00,59.0,39.4,29.94,SSW,209,3.0,6.0,48,0.00,,---,0.00,VWS V13.01,2013-10-22 18:03:00,
2013-10-22 13:04:00,59.0,38.8,29.94,SSW,209,1.0,6.0,47,0.00,,---,0.00,VWS V13.01,2013-10-22 18:04:00,
2013-10-22 13:05:00,59.0,38.8,29.94,SSW,209,0.0,6.0,47,0.00,,---,0.00,VWS V13.01,2013-10-22 18:05:00,
2013-10-22 13:06:00,59.1,40.0,29.94,SSW,209,5.0,7.0,49,0.00,,---,0.00,VWS V13.01,2013-10-22 18:06:00,
2013-10-22 13:07:00,59.2,40.1,29.94,SSW,209,2.0,7.0,49,0.00,,---,0.00,VWS V13.01,2013-10-22 18:07:00,
2013-10-22 13:08:00,59.3,39.1,29.94,SSW,209,0.0,7.0,47,0.00,,---,0.00,VWS V13.01,2013-10-22 18:08:00,
2013-10-22 13:09:00,59.5,40.9,29.94,SSW,209,2.0,7.0,50,0.00,,---,0.00,VWS V13.01,2013-10-22 18:09:00,
2013-10-22 13:10:00,59.6,40.4,29.94,SSW,209,6.0,7.0,49,0.00,,---,0.00,VWS V13.01,2013-10-22 18:10:00,
2013-10-22 13:11:00,59.7,40.5,29.93,SSW,209,3.0,7.0,49,0.00,,---,0.00,VWS V13.01,2013-10-22 18:11:00,
2013-10-22 13:12:00,59.7,40.0,29.93,SSW,209,1.0,7.0,48,0.00,,---,0.00,VWS V13.01,2013-10-22 18:12:00,
2013-10-22 13:13:00,59.8,41.1,29.93,SSW,209,0.0,7.0,50,0.00,,---,0.00,VWS V13.01,2013-10-22 18:13:00,
2013-10-22 13:14:00,59.8,40.1,29.93,SSW,209,3.0,7.0,48,0.00,,---,0.00,VWS V13.01,2013-10-22 18:14:00,
2013-10-22 13:15:00,59.9,40.2,29.93,SSW,209,0.0,7.0,48,0.00,,---,0.00,VWS V13.01,2013-10-22 18:15:00,
2013-10-22 13:16:00,59.9,40.2,29.93,SSW,209,0.0,7.0,48,0.00,,---,0.00,VWS V13.01,2013-10-22 18:16:00,
2013-10-22 13:17:00,60.0,41.8,29.93,SSW,209,0.0,7.0,51,0.00,,---,0.00,VWS V13.01,2013-10-22 18:17:00,
2013-10-22 13:18:00,60.1,41.9,29.93,SSW,209,3.0,7.0,51,0.00,,---,0.00,VWS V13.01,2013-10-22 18:18:00,
2013-10-22 13:19:00,60.2,39.9,29.93,SSW,209,3.0,7.0,47,0.00,,---,0.00,VWS V13.01,2013-10-22 18:19:00,
2013-10-22 13:20:00,60.2,40.5,29.93,SSW,209,2.0,7.0,48,0.00,,---,0.00,VWS V13.01,2013-10-22 18:20:00,
2013-10-22 13:21:00,60.2,40.5,29.93,SSW,209,0.0,7.0,48,0.00,,---,0.00,VWS V13.01,2013-10-22 18:21:00,
2013-10-22 13:22:00,60.3,42.1,29.93,SSW,209,9.0,9.0,51,0.00,,---,0.00,VWS V13.01,2013-10-22 18:22:00,
2013-10-22 13:23:00,60.3,40.5,29.93,SSW,209,4.0,9.0,48,0.00,,---,0.00,VWS V13.01,2013-10-22 18:23:00,
2013-10-22 13:24:00,60.3,41.1,29.93,SSW,209,2.0,9.0,49,0.00,,---,0.00,VWS V13.01,2013-10-22 18:24:00,
2013-10-22 13:25:00,60.2,39.9,29.92,SSW,209,1.0,9.0,47,0.00,,---,0.00,VWS V13.01,2013-10-22 18:25:00,
2013-10-22 13:26:00,60.2,39.9,29.92,SSW,209,0.0,9.0,47,0.00,,---,0.00,VWS V13.01,2013-10-22 18:26:00,
2013-10-22 13:27:00,60.1,39.8,29.92,SSW,209,2.0,9.0,47,0.00,,---,0.00,VWS V13.01,2013-10-22 18:27:00,
2013-10-22 13:28:00,60.1,40.4,29.92,SSW,209,0.0,9.0,48,0.00,,---,0.00,VWS V13.01,2013-10-22 18:28:00,
2013-10-22 13:29:00,60.1,41.9,29.92,SSW,209,4.0,9.0,51,0.00,,---,0.00,VWS V13.01,2013-10-22 18:29:00,
2013-10-22 13:30:00,60.2,41.5,29.92,SSW,209,0.0,9.0,50,0.00,,---,0.00,VWS V13.01,2013-10-22 18:30:00,
2013-10-22 13:31:00,60.2,40.5,29.92,SSW,209,3.0,4.0,48,0.00,,---,0.00,VWS V13.01,2013-10-22 18:31:00,
2013-10-22 13:32:00,60.2,40.5,29.92,SSW,209,0.0,4.0,48,0.00,,---,0.00,VWS V13.01,2013-10-22 18:32:00,
2013-10-22 13:33:00,60.2,40.5,29.92,SSW,209,0.0,4.0,48,0.00,,---,0.00,VWS V13.01,2013-10-22 18:33:00,
2013-10-22 13:34:00,60.2,42.0,29.92,SSW,209,0.0,4.0,51,0.00,,---,0.00,VWS V13.01,2013-10-22 18:34:00,
2013-10-22 13:35:00,60.3,41.6,29.92,SSW,209,0.0,4.0,50,0.00,,---,0.00,VWS V13.01,2013-10-22 18:35:00,
2013-10-22 13:36:00,60.4,43.7,29.92,SSW,209,3.0,4.0,54,0.00,,---,0.00,VWS V13.01,2013-10-22 18:36:00,
2013-10-22 13:37:00,60.5,41.8,29.92,SSW,209,5.0,5.0,50,0.00,,---,0.00,VWS V13.01,2013-10-22 18:37:00,
2013-10-22 13:38:00,60.6,41.9,29.92,SSW,209,0.0,5.0,50,0.00,,---,0.00,VWS V13.01,2013-10-22 18:38:00,
2013-10-22 13:39:00,60.7,42.0,29.92,SSW,209,5.0,5.0,50,0.00,,---,0.00,VWS V13.01,2013-10-22 18:39:00,
2013-10-22 13:40:00,60.8,40.5,29.92,SSW,209,1.0,6.0,47,0.00,,---,0.00,VWS V13.01,2013-10-22 18:40:00,
2013-10-22 13:41:00,60.9,41.1,29.92,SSW,209,3.0,6.0,48,0.00,,---,0.00,VWS V13.01,2013-10-22 18:41:00,
2013-10-22 13:42:00,60.8,39.9,29.91,SSW,209,4.0,6.0,46,0.00,,---,0.00,VWS V13.01,2013-10-22 18:42:00,
2013-10-22 13:43:00,60.8,39.9,29.91,SSW,209,5.0,6.0,46,0.00,,---,0.00,VWS V13.01,2013-10-22 18:43:00,
2013-10-22 13:44:00,60.7,40.4,29.91,SSW,209,3.0,7.0,47,0.00,,---,0.00,VWS V13.01,2013-10-22 18:44:00,
2013-10-22 13:45:00,60.7,39.8,29.91,SSW,209,6.0,7.0,46,0.00,,---,0.00,VWS V13.01,2013-10-22 18:45:00,
2013-10-22 13:46:00,60.6,39.7,29.91,SSW,209,4.0,7.0,46,0.00,,---,0.00,VWS V13.01,2013-10-22 18:46:00,
2013-10-22 13:47:00,60.6,40.3,29.91,SSW,209,4.0,7.0,47,0.00,,---,0.00,VWS V13.01,2013-10-22 18:47:00,
2013-10-22 13:48:00,60.6,40.8,29.91,SSW,209,2.0,7.0,48,0.00,,---,0.00,VWS V13.01,2013-10-22 18:48:00,
2013-10-22 13:49:00,60.6,41.4,29.91,SSW,209,8.0,8.0,49,0.00,,---,0.00,VWS V13.01,2013-10-22 18:49:00,
2013-10-22 13:50:00,60.6,40.3,29.91,SSW,209,2.0,8.0,47,0.00,,---,0.00,VWS V13.01,2013-10-22 18:50:00,
2013-10-22 13:51:00,60.6,39.7,29.91,SSW,209,2.0,8.0,46,0.00,,---,0.00,VWS V13.01,2013-10-22 18:51:00,
2013-10-22 13:52:00,60.6,40.3,29.91,SSW,209,0.0,8.0,47,0.00,,---,0.00,VWS V13.01,2013-10-22 18:52:00,
2013-10-22 13:53:00,60.7,40.4,29.91,SSW,209,0.0,8.0,47,0.00,,---,0.00,VWS V13.01,2013-10-22 18:53:00,
2013-10-22 13:54:00,60.6,40.8,29.91,SSW,209,0.0,8.0,48,0.00,,---,0.00,VWS V13.01,2013-10-22 18:54:00,
2013-10-22 13:55:00,60.7,40.9,29.91,SSW,209,3.0,8.0,48,0.00,,---,0.00,VWS V13.01,2013-10-22 18:55:00,
2013-10-22 13:56:00,60.7,42.5,29.91,SSW,209,1.0,8.0,51,0.00,,---,0.00,VWS V13.01,2013-10-22 18:56:00,
2013-10-22 13:57:00,60.8,42.6,29.91,SSW,209,5.0,8.0,51,0.00,,---,0.00,VWS V13.01,2013-10-22 18:57:00,
2013-10-22 13:58:00,60.8,41.0,29.92,SSW,209,3.0,8.0,48,0.00,,---,0.00,VWS V13.01,2013-10-22 18:58:00,
2013-10-22 13:59:00,60.8,40.5,29.92,SSW,209,4.0,8.0,47,0.00,,---,0.00,VWS V13.01,2013-10-22 18:59:00,
2013-10-22 14:00:00,60.9,41.1,29.92,SSW,209,5.0,8.0,48,0.00,,---,0.00,VWS V13.01,2013-10-22 19:00:00,
2013-10-22 14:01:00,60.9,42.7,29.92,SSW,209,2.0,5.0,51,0.00,,---,0.00,VWS V13.01,2013-10-22 19:01:00,
2013-10-22 14:02:00,60.9,41.1,29.92,SSW,209,1.0,5.0,48,0.00,,---,0.00,VWS V13.01,2013-10-22 19:02:00,
2013-10-22 14:03:00,60.9,42.2,29.91,SSW,209,2.0,5.0,50,0.00,,---,0.00,VWS V13.01,2013-10-22 19:03:00,
2013-10-22 14:04:00,60.9,41.6,29.91,SSW,209,5.0,6.0,49,0.00,,---,0.00,VWS V13.01,2013-10-22 19:04:00,
2013-10-22 14:05:00,61.0,40.7,29.91,SSW,209,1.0,6.0,47,0.00,,---,0.00,VWS V13.01,2013-10-22 19:05:00,
2013-10-22 14:06:00,61.0,41.7,29.92,SSW,209,4.0,6.0,49,0.00,,---,0.00,VWS V13.01,2013-10-22 19:06:00,
2013-10-22 14:07:00,61.0,40.7,29.91,SSW,209,1.0,9.0,47,0.00,,---,0.00,VWS V13.01,2013-10-22 19:07:00,
2013-10-22 14:08:00,61.0,40.7,29.91,SSW,209,3.0,9.0,47,0.00,,---,0.00,VWS V13.01,2013-10-22 19:08:00,
2013-10-22 14:09:00,61.1,42.3,29.91,SSW,209,3.0,9.0,50,0.00,,---,0.00,VWS V13.01,2013-10-22 19:09:00,
2013-10-22 14:10:00,61.1,42.8,29.91,SSW,211,5.0,9.0,51,0.00,,---,0.00,VWS V13.01,2013-10-22 19:10:00,
2013-10-22 14:11:00,61.2,41.4,29.91,SSW,211,4.0,9.0,48,0.00,,---,0.00,VWS V13.01,2013-10-22 19:11:00,
2013-10-22 14:12:00,61.3,40.9,29.91,SSW,211,4.0,9.0,47,0.00,,---,0.00,VWS V13.01,2013-10-22 19:12:00,
2013-10-22 14:13:00,61.3,40.9,29.91,SSW,211,3.0,9.0,47,0.00,,---,0.00,VWS V13.01,2013-10-22 19:13:00,
2013-10-22 14:14:00,61.3,40.9,29.91,SSW,211,2.0,9.0,47,0.00,,---,0.00,VWS V13.01,2013-10-22 19:14:00,
2013-10-22 14:15:00,61.3,41.5,29.91,SSW,211,3.0,9.0,48,0.00,,---,0.00,VWS V13.01,2013-10-22 19:15:00,
2013-10-22 14:16:00,61.3,41.5,29.91,SSW,211,3.0,9.0,48,0.00,,---,0.00,VWS V13.01,2013-10-22 19:16:00,
2013-10-22 14:17:00,61.4,41.6,29.91,SW,214,1.0,9.0,48,0.00,,---,0.00,VWS V13.01,2013-10-22 19:17:00,
2013-10-22 14:18:00,61.4,41.0,29.91,SW,218,3.0,10.0,47,0.00,,---,0.00,VWS V13.01,2013-10-22 19:18:00,
2013-10-22 14:19:00,61.4,41.0,29.91,SW,219,4.0,10.0,47,0.00,,---,0.00,VWS V13.01,2013-10-22 19:19:00,
2013-10-22 14:20:00,61.4,41.6,29.91,SW,219,3.0,10.0,48,0.00,,---,0.00,VWS V13.01,2013-10-22 19:20:00,
2013-10-22 14:21:00,61.3,40.4,29.91,SW,218,0.0,10.0,46,0.00,,---,0.00,VWS V13.01,2013-10-22 19:21:00,
2013-10-22 14:22:00,61.3,42.0,29.91,SW,218,0.0,10.0,49,0.00,,---,0.00,VWS V13.01,2013-10-22 19:22:00,
2013-10-22 14:23:00,61.3,41.5,29.91,SW,218,2.0,10.0,48,0.00,,---,0.00,VWS V13.01,2013-10-22 19:23:00,
2013-10-22 14:24:00,61.2,41.4,29.91,SW,219,0.0,10.0,48,0.00,,---,0.00,VWS V13.01,2013-10-22 19:24:00,
2013-10-22 14:25:00,61.2,42.4,29.91,SW,219,0.0,10.0,50,0.00,,---,0.00,VWS V13.01,2013-10-22 19:25:00,
2013-10-22 14:26:00,61.3,43.5,29.91,SW,219,0.0,10.0,52,0.00,,---,0.00,VWS V13.01,2013-10-22 19:26:00,
2013-10-22 14:27:00,61.3,42.0,29.91,SW,220,6.0,10.0,49,0.00,,---,0.00,VWS V13.01,2013-10-22 19:27:00,
2013-10-22 14:28:00,61.4,41.6,29.91,SW,219,5.0,10.0,48,0.00,,---,0.00,VWS V13.01,2013-10-22 19:28:00,
2013-10-22 14:29:00,61.5,41.1,29.91,SW,219,3.0,10.0,47,0.00,,---,0.00,VWS V13.01,2013-10-22 19:29:00,
2013-10-22 14:30:00,61.5,42.2,29.91,SW,220,0.0,10.0,49,0.00,,---,0.00,VWS V13.01,2013-10-22 19:30:00,
2013-10-22 14:31:00,61.6,42.3,29.91,SW,220,0.0,0.0,49,0.00,,---,0.00,VWS V13.01,2013-10-22 19:31:00,
2013-10-22 14:32:00,61.6,42.3,29.91,SW,220,0.0,1.0,49,0.00,,---,0.00,VWS V13.01,2013-10-22 19:32:00,
2013-10-22 14:33:00,61.7,42.4,29.91,SW,219,0.0,2.0,49,0.00,,---,0.00,VWS V13.01,2013-10-22 19:33:00,
2013-10-22 14:34:00,61.8,42.5,29.90,SW,219,1.0,2.0,49,0.00,,---,0.00,VWS V13.01,2013-10-22 19:34:00,
2013-10-22 14:35:00,61.9,43.1,29.90,SW,219,4.0,7.0,50,0.00,,---,0.00,VWS V13.01,2013-10-22 19:35:00,
2013-10-22 14:36:00,62.0,42.1,29.91,SW,224,7.0,10.0,48,0.00,,---,0.00,VWS V13.01,2013-10-22 19:36:00,
2013-10-22 14:37:00,62.0,41.6,29.90,SW,224,2.0,10.0,47,0.00,,---,0.00,VWS V13.01,2013-10-22 19:37:00,
2013-10-22 14:38:00,62.1,41.7,29.90,SW,223,0.0,10.0,47,0.00,,---,0.00,VWS V13.01,2013-10-22 19:38:00,
2013-10-22 14:39:00,62.1,42.7,29.90,SW,224,0.0,10.0,49,0.00,,---,0.00,VWS V13.01,2013-10-22 19:39:00,
2013-10-22 14:40:00,62.1,42.2,29.90,SW,223,0.0,10.0,48,0.00,,---,0.00,VWS V13.01,2013-10-22 19:40:00,
2013-10-22 14:41:00,62.1,41.1,29.90,SW,224,6.0,10.0,46,0.00,,---,0.00,VWS V13.01,2013-10-22 19:41:00,
2013-10-22 14:42:00,62.2,42.3,29.90,SW,223,3.0,10.0,48,0.00,,---,0.00,VWS V13.01,2013-10-22 19:42:00,
2013-10-22 14:43:00,62.2,41.2,29.90,SW,224,0.0,10.0,46,0.00,,---,0.00,VWS V13.01,2013-10-22 19:43:00,
2013-10-22 14:44:00,62.1,41.7,29.90,SW,224,0.0,10.0,47,0.00,,---,0.00,VWS V13.01,2013-10-22 19:44:00,
2013-10-22 14:45:00,62.1,41.7,29.90,SW,224,0.0,10.0,47,0.00,,---,0.00,VWS V13.01,2013-10-22 19:45:00,
2013-10-22 14:46:00,62.1,42.7,29.90,SW,224,4.0,10.0,49,0.00,,---,0.00,VWS V13.01,2013-10-22 19:46:00,
2013-10-22 14:47:00,62.0,41.6,29.90,SW,223,2.0,10.0,47,0.00,,---,0.00,VWS V13.01,2013-10-22 19:47:00,
2013-10-22 14:48:00,62.0,41.6,29.90,SW,224,3.0,10.0,47,0.00,,---,0.00,VWS V13.01,2013-10-22 19:48:00,
2013-10-22 14:49:00,62.0,41.6,29.90,SW,223,5.0,10.0,47,0.00,,---,0.00,VWS V13.01,2013-10-22 19:49:00,
2013-10-22 14:50:00,62.0,41.6,29.90,SW,224,4.0,10.0,47,0.00,,---,0.00,VWS V13.01,2013-10-22 19:50:00,
2013-10-22 14:51:00,61.9,40.9,29.90,SW,224,8.0,10.0,46,0.00,,---,0.00,VWS V13.01,2013-10-22 19:51:00,
2013-10-22 14:52:00,61.9,41.5,29.90,SW,224,2.0,10.0,47,0.00,,---,0.00,VWS V13.01,2013-10-22 19:52:00,
2013-10-22 14:53:00,61.9,40.9,29.90,SW,224,6.0,10.0,46,0.00,,---,0.00,VWS V13.01,2013-10-22 19:53:00,
2013-10-22 14:54:00,61.8,42.5,29.89,SW,224,5.0,10.0,49,0.00,,---,0.00,VWS V13.01,2013-10-22 19:54:00,
2013-10-22 14:55:00,61.8,41.4,29.90,SW,229,12.0,12.0,47,0.00,,---,0.00,VWS V13.01,2013-10-22 19:55:00,
2013-10-22 14:56:00,61.7,40.7,29.90,SW,236,3.0,14.0,46,0.00,,---,0.00,VWS V13.01,2013-10-22 19:56:00,
2013-10-22 14:57:00,61.6,40.6,29.90,SW,236,4.0,14.0,46,0.00,,---,0.00,VWS V13.01,2013-10-22 19:57:00,
2013-10-22 14:58:00,61.6,41.7,29.89,SW,236,7.0,14.0,48,0.00,,---,0.00,VWS V13.01,2013-10-22 19:58:00,
2013-10-22 14:59:00,61.5,41.1,29.89,SW,236,4.0,14.0,47,0.00,,---,0.00,VWS V13.01,2013-10-22 19:59:00,
2013-10-22 15:00:00,61.4,41.0,29.89,SW,236,5.0,14.0,47,0.00,,---,0.00,VWS V13.01,2013-10-22 20:00:00,
2013-10-22 15:01:00,61.4,41.0,29.89,SW,236,4.0,5.0,47,0.00,,---,0.00,VWS V13.01,2013-10-22 20:01:00,
2013-10-22 15:02:00,61.3,40.9,29.89,SW,236,0.0,5.0,47,0.00,,---,0.00,VWS V13.01,2013-10-22 20:02:00,
2013-10-22 15:03:00,61.3,41.5,29.89,SW,236,3.0,5.0,48,0.00,,---,0.00,VWS V13.01,2013-10-22 20:03:00,
2013-10-22 15:04:00,61.3,40.9,29.89,SW,236,0.0,5.0,47,0.00,,---,0.00,VWS V13.01,2013-10-22 20:04:00,
2013-10-22 15:05:00,61.3,40.9,29.89,SW,236,2.0,5.0,47,0.00,,---,0.00,VWS V13.01,2013-10-22 20:05:00,
2013-10-22 15:06:00,61.3,40.4,29.89,SW,236,0.0,5.0,46,0.00,,---,0.00,VWS V13.01,2013-10-22 20:06:00,
2013-10-22 15:07:00,61.3,41.5,29.89,SW,236,1.0,5.0,48,0.00,,---,0.00,VWS V13.01,2013-10-22 20:07:00,
2013-10-22 15:08:00,61.4,41.6,29.89,SW,236,0.0,5.0,48,0.00,,---,0.00,VWS V13.01,2013-10-22 20:08:00,
2013-10-22 15:09:00,61.4,41.6,29.89,SW,236,1.0,5.0,48,0.00,,---,0.00,VWS V13.01,2013-10-22 20:09:00,
2013-10-22 15:10:00,61.4,41.6,29.89,SW,236,0.0,5.0,48,0.00,,---,0.00,VWS V13.01,2013-10-22 20:10:00,
2013-10-22 15:11:00,61.5,41.7,29.89,SW,236,0.0,5.0,48,0.00,,---,0.00,VWS V13.01,2013-10-22 20:11:00,
2013-10-22 15:12:00,61.6,42.3,29.89,SW,236,2.0,5.0,49,0.00,,---,0.00,VWS V13.01,2013-10-22 20:12:00,
2013-10-22 15:13:00,61.7,41.8,29.89,SW,236,1.0,5.0,48,0.00,,---,0.00,VWS V13.01,2013-10-22 20:13:00,
2013-10-22 15:14:00,61.7,41.8,29.89,SW,236,0.0,5.0,48,0.00,,---,0.00,VWS V13.01,2013-10-22 20:14:00,
2013-10-22 15:15:00,61.8,43.0,29.90,SW,236,0.0,5.0,50,0.00,,---,0.00,VWS V13.01,2013-10-22 20:15:00,
2013-10-22 15:16:00,61.9,42.5,29.90,SW,236,7.0,8.0,49,0.00,,---,0.00,VWS V13.01,2013-10-22 20:16:00,
2013-10-22 15:17:00,61.9,41.5,29.90,SW,236,3.0,8.0,47,0.00,,---,0.00,VWS V13.01,2013-10-22 20:17:00,
2013-10-22 15:18:00,62.0,43.2,29.89,SW,236,4.0,8.0,50,0.00,,---,0.00,VWS V13.01,2013-10-22 20:18:00,
2013-10-22 15:19:00,62.0,42.6,29.90,SW,236,2.0,8.0,49,0.00,,---,0.00,VWS V13.01,2013-10-22 20:19:00,
2013-10-22 15:20:00,62.0,42.1,29.90,SW,236,3.0,8.0,48,0.00,,---,0.00,VWS V13.01,2013-10-22 20:20:00,
2013-10-22 15:21:00,62.1,42.7,29.90,SW,236,2.0,8.0,49,0.00,,---,0.00,VWS V13.01,2013-10-22 20:21:00,
2013-10-22 15:22:00,62.1,41.1,29.90,SW,236,8.0,9.0,46,0.00,,---,0.00,VWS V13.01,2013-10-22 20:22:00,
2013-10-22 15:23:00,62.0,41.6,29.90,SW,236,3.0,9.0,47,0.00,,---,0.00,VWS V13.01,2013-10-22 20:23:00,
2013-10-22 15:24:00,62.0,42.1,29.90,SW,236,2.0,9.0,48,0.00,,---,0.00,VWS V13.01,2013-10-22 20:24:00,
2013-10-22 15:25:00,62.0,42.6,29.90,SW,236,4.0,9.0,49,0.00,,---,0.00,VWS V13.01,2013-10-22 20:25:00,
2013-10-22 15:26:00,61.9,42.0,29.89,SW,236,3.0,9.0,48,0.00,,---,0.00,VWS V13.01,2013-10-22 20:26:00,
2013-10-22 15:27:00,61.9,42.0,29.89,SW,236,6.0,9.0,48,0.00,,---,0.00,VWS V13.01,2013-10-22 20:27:00,
2013-10-22 15:28:00,61.9,42.5,29.89,SW,236,0.0,9.0,49,0.00,,---,0.00,VWS V13.01,2013-10-22 20:28:00,
2013-10-22 15:29:00,61.9,41.5,29.89,SW,236,5.0,9.0,47,0.00,,---,0.00,VWS V13.01,2013-10-22 20:29:00,
2013-10-22 15:30:00,61.9,42.0,29.89,SW,236,1.0,9.0,48,0.00,,---,0.00,VWS V13.01,2013-10-22 20:30:00,
2013-10-22 15:31:00,61.9,41.5,29.89,SW,236,2.0,3.0,47,0.00,,---,0.00,VWS V13.01,2013-10-22 20:31:00,
2013-10-22 15:32:00,61.8,41.4,29.89,SW,236,0.0,3.0,47,0.00,,---,0.00,VWS V13.01,2013-10-22 20:32:00,
2013-10-22 15:33:00,61.9,40.9,29.89,SW,236,3.0,3.0,46,0.00,,---,0.00,VWS V13.01,2013-10-22 20:33:00,
2013-10-22 15:34:00,61.9,41.5,29.89,SW,236,1.0,7.0,47,0.00,,---,0.00,VWS V13.01,2013-10-22 20:34:00,
2013-10-22 15:35:00,61.9,41.5,29.89,SW,236,3.0,7.0,47,0.00,,---,0.00,VWS V13.01,2013-10-22 20:35:00,
2013-10-22 15:36:00,61.9,40.9,29.89,SW,236,2.0,7.0,46,0.00,,---,0.00,VWS V13.01,2013-10-22 20:36:00,
2013-10-22 15:37:00,61.9,40.9,29.89,SW,236,4.0,7.0,46,0.00,,---,0.00,VWS V13.01,2013-10-22 20:37:00,
2013-10-22 15:38:00,61.8,40.8,29.89,SW,236,1.0,7.0,46,0.00,,---,0.00,VWS V13.01,2013-10-22 20:38:00,
2013-10-22 15:39:00,61.8,41.4,29.89,SW,236,0.0,7.0,47,0.00,,---,0.00,VWS V13.01,2013-10-22 20:39:00,
2013-10-22 15:40:00,61.7,41.8,29.89,SW,236,0.0,7.0,48,0.00,,---,0.00,VWS V13.01,2013-10-22 20:40:00,
2013-10-22 15:41:00,61.7,41.8,29.89,SW,236,4.0,7.0,48,0.00,,---,0.00,VWS V13.01,2013-10-22 20:41:00,
2013-10-22 15:42:00,61.7,40.7,29.89,SW,236,2.0,7.0,46,0.00,,---,0.00,VWS V13.01,2013-10-22 20:42:00,
2013-10-22 15:43:00,61.7,41.3,29.89,SW,236,4.0,7.0,47,0.00,,---,0.00,VWS V13.01,2013-10-22 20:43:00,
2013-10-22 15:44:00,61.7,41.3,29.89,SW,236,8.0,8.0,47,0.00,,---,0.00,VWS V13.01,2013-10-22 20:44:00,
2013-10-22 15:45:00,61.6,41.7,29.89,SW,236,3.0,8.0,48,0.00,,---,0.00,VWS V13.01,2013-10-22 20:45:00,
2013-10-22 15:46:00,61.6,41.7,29.89,SW,236,0.0,8.0,48,0.00,,---,0.00,VWS V13.01,2013-10-22 20:46:00,
2013-10-22 15:47:00,61.6,41.7,29.89,SW,236,3.0,8.0,48,0.00,,---,0.00,VWS V13.01,2013-10-22 20:47:00,
2013-10-22 15:48:00,61.6,42.3,29.89,SW,236,0.0,8.0,49,0.00,,---,0.00,VWS V13.01,2013-10-22 20:48:00,
2013-10-22 15:49:00,61.6,42.3,29.89,SW,236,1.0,8.0,49,0.00,,---,0.00,VWS V13.01,2013-10-22 20:49:00,
2013-10-22 15:50:00,61.6,42.3,29.89,SW,236,0.0,8.0,49,0.00,,---,0.00,VWS V13.01,2013-10-22 20:50:00,
2013-10-22 15:51:00,61.7,41.8,29.89,SW,236,3.0,8.0,48,0.00,,---,0.00,VWS V13.01,2013-10-22 20:51:00,
2013-10-22 15:52:00,61.7,41.8,29.89,SW,236,5.0,8.0,48,0.00,,---,0.00,VWS V13.01,2013-10-22 20:52:00,
2013-10-22 15:53:00,61.7,41.3,29.89,SW,236,5.0,8.0,47,0.00,,---,0.00,VWS V13.01,2013-10-22 20:53:00,
2013-10-22 15:54:00,61.7,41.8,29.89,SW,236,4.0,8.0,48,0.00,,---,0.00,VWS V13.01,2013-10-22 20:54:00,
2013-10-22 15:55:00,61.6,41.7,29.89,SW,236,4.0,10.0,48,0.00,,---,0.00,VWS V13.01,2013-10-22 20:55:00,
2013-10-22 15:56:00,61.5,41.7,29.89,SW,236,6.0,10.0,48,0.00,,---,0.00,VWS V13.01,2013-10-22 20:56:00,
2013-10-22 15:57:00,61.4,41.6,29.89,SW,236,4.0,10.0,48,0.00,,---,0.00,VWS V13.01,2013-10-22 20:57:00,
2013-10-22 15:58:00,61.4,41.6,29.89,SW,236,5.0,10.0,48,0.00,,---,0.00,VWS V13.01,2013-10-22 20:58:00,
2013-10-22 15:59:00,61.4,41.6,29.89,SW,236,3.0,10.0,48,0.00,,---,0.00,VWS V13.01,2013-10-22 20:59:00,
2013-10-22 16:00:00,61.3,41.5,29.89,SW,236,4.0,10.0,48,0.00,,---,0.00,VWS V13.01,2013-10-22 21:00:00,
2013-10-22 16:01:00,61.3,41.5,29.89,SW,236,3.0,5.0,48,0.00,,---,0.00,VWS V13.01,2013-10-22 21:01:00,
2013-10-22 16:02:00,61.3,41.5,29.89,SW,236,4.0,6.0,48,0.00,,---,0.00,VWS V13.01,2013-10-22 21:02:00,
2013-10-22 16:03:00,61.2,41.4,29.89,SW,236,4.0,6.0,48,0.00,,---,0.00,VWS V13.01,2013-10-22 21:03:00,
2013-10-22 16:04:00,61.1,41.3,29.89,SW,236,4.0,6.0,48,0.00,,---,0.00,VWS V13.01,2013-10-22 21:04:00,
2013-10-22 16:05:00,61.1,41.3,29.88,SW,236,4.0,7.0,48,0.00,,---,0.00,VWS V13.01,2013-10-22 21:05:00,
2013-10-22 16:06:00,61.0,41.2,29.89,SW,236,4.0,7.0,48,0.00,,---,0.00,VWS V13.01,2013-10-22 21:06:00,
2013-10-22 16:07:00,60.9,41.6,29.89,SW,236,3.0,7.0,49,0.00,,---,0.00,VWS V13.01,2013-10-22 21:07:00,
2013-10-22 16:08:00,60.8,41.5,29.89,SW,236,3.0,7.0,49,0.00,,---,0.00,VWS V13.01,2013-10-22 21:08:00,
2013-10-22 16:09:00,60.6,41.9,29.89,SW,236,3.0,7.0,50,0.00,,---,0.00,VWS V13.01,2013-10-22 21:09:00,
2013-10-22 16:10:00,60.4,41.7,29.89,SW,236,0.0,7.0,50,0.00,,---,0.00,VWS V13.01,2013-10-22 21:10:00,
2013-10-22 16:11:00,60.3,41.1,29.89,SW,236,0.0,7.0,49,0.00,,---,0.00,VWS V13.01,2013-10-22 21:11:00,
2013-10-22 16:12:00,60.2,41.0,29.89,SW,236,1.0,7.0,49,0.00,,---,0.00,VWS V13.01,2013-10-22 21:12:00,
2013-10-22 16:13:00,60.1,40.9,29.89,SW,236,0.0,7.0,49,0.00,,---,0.00,VWS V13.01,2013-10-22 21:13:00,
2013-10-22 16:14:00,60.0,41.8,29.89,SW,236,2.0,7.0,51,0.00,,---,0.00,VWS V13.01,2013-10-22 21:14:00,
2013-10-22 16:15:00,59.9,41.8,29.88,SW,236,2.0,7.0,51,0.00,,---,0.00,VWS V13.01,2013-10-22 21:15:00,
2013-10-22 16:16:00,59.8,41.7,29.88,SW,236,2.0,7.0,51,0.00,,---,0.00,VWS V13.01,2013-10-22 21:16:00,
2013-10-22 16:17:00,59.6,41.5,29.88,SW,236,2.0,7.0,51,0.00,,---,0.00,VWS V13.01,2013-10-22 21:17:00,
2013-10-22 16:18:00,59.5,41.4,29.88,SW,236,3.0,7.0,51,0.00,,---,0.00,VWS V13.01,2013-10-22 21:18:00,
2013-10-22 16:19:00,59.5,41.4,29.88,SW,236,2.0,7.0,51,0.00,,---,0.00,VWS V13.01,2013-10-22 21:19:00,
2013-10-22 16:20:00,59.3,41.2,29.88,SW,236,3.0,7.0,51,0.00,,---,0.00,VWS V13.01,2013-10-22 21:20:00,
2013-10-22 16:21:00,59.2,41.6,29.88,SW,236,2.0,7.0,52,0.00,,---,0.00,VWS V13.01,2013-10-22 21:21:00,
2013-10-22 16:22:00,59.1,41.5,29.88,SW,236,3.0,7.0,52,0.00,,---,0.00,VWS V13.01,2013-10-22 21:22:00,
2013-10-22 16:23:00,59.0,41.4,29.88,SW,236,2.0,7.0,52,0.00,,---,0.00,VWS V13.01,2013-10-22 21:23:00,
2013-10-22 16:24:00,59.0,41.9,29.88,SW,236,2.0,7.0,53,0.00,,---,0.00,VWS V13.01,2013-10-22 21:24:00,
2013-10-22 16:25:00,59.0,41.9,29.88,SW,236,3.0,7.0,53,0.00,,---,0.00,VWS V13.01,2013-10-22 21:25:00,
2013-10-22 16:26:00,59.0,42.4,29.88,SW,236,2.0,7.0,54,0.00,,---,0.00,VWS V13.01,2013-10-22 21:26:00,
2013-10-22 16:27:00,59.0,42.4,29.88,SW,236,1.0,7.0,54,0.00,,---,0.00,VWS V13.01,2013-10-22 21:27:00,
2013-10-22 16:28:00,59.0,42.4,29.88,SW,236,2.0,7.0,54,0.00,,---,0.00,VWS V13.01,2013-10-22 21:28:00,
2013-10-22 16:29:00,59.0,42.4,29.88,SW,236,1.0,7.0,54,0.00,,---,0.00,VWS V13.01,2013-10-22 21:29:00,
2013-10-22 16:30:00,59.0,42.4,29.88,SW,236,1.0,7.0,54,0.00,,---,0.00,VWS V13.01,2013-10-22 21:30:00,
2013-10-22 16:31:00,59.0,41.9,29.88,SW,236,2.0,4.0,53,0.00,,---,0.00,VWS V13.01,2013-10-22 21:31:00,
2013-10-22 16:32:00,59.0,43.3,29.88,SW,236,2.0,4.0,56,0.00,,---,0.00,VWS V13.01,2013-10-22 21:32:00,
2013-10-22 16:33:00,59.0,43.3,29.88,SW,236,1.0,4.0,56,0.00,,---,0.00,VWS V13.01,2013-10-22 21:33:00,
2013-10-22 16:34:00,59.0,42.9,29.88,SW,236,3.0,4.0,55,0.00,,---,0.00,VWS V13.01,2013-10-22 21:34:00,
2013-10-22 16:35:00,59.0,42.4,29.88,SW,236,3.0,5.0,54,0.00,,---,0.00,VWS V13.01,2013-10-22 21:35:00,
2013-10-22 16:36:00,59.0,42.9,29.87,SW,236,3.0,5.0,55,0.00,,---,0.00,VWS V13.01,2013-10-22 21:36:00,
2013-10-22 16:37:00,59.0,43.3,29.87,SW,236,0.0,5.0,56,0.00,,---,0.00,VWS V13.01,2013-10-22 21:37:00,
2013-10-22 16:38:00,58.9,42.8,29.87,SW,236,1.0,5.0,55,0.00,,---,0.00,VWS V13.01,2013-10-22 21:38:00,
2013-10-22 16:39:00,58.9,43.2,29.87,SW,236,1.0,5.0,56,0.00,,---,0.00,VWS V13.01,2013-10-22 21:39:00,
2013-10-22 16:40:00,58.8,43.6,29.87,SW,236,1.0,5.0,57,0.00,,---,0.00,VWS V13.01,2013-10-22 21:40:00,
2013-10-22 16:41:00,58.8,42.7,29.87,SW,236,3.0,5.0,55,0.00,,---,0.00,VWS V13.01,2013-10-22 21:41:00,
2013-10-22 16:42:00,58.7,43.1,29.87,SW,236,2.0,5.0,56,0.00,,---,0.00,VWS V13.01,2013-10-22 21:42:00,
2013-10-22 16:43:00,58.7,43.1,29.87,SW,236,1.0,5.0,56,0.00,,---,0.00,VWS V13.01,2013-10-22 21:43:00,
2013-10-22 16:44:00,58.7,43.5,29.87,SW,236,1.0,5.0,57,0.00,,---,0.00,VWS V13.01,2013-10-22 21:44:00,
2013-10-22 16:45:00,58.7,43.5,29.87,SW,236,1.0,5.0,57,0.00,,---,0.00,VWS V13.01,2013-10-22 21:45:00,
2013-10-22 16:46:00,58.6,43.0,29.87,SW,236,2.0,5.0,56,0.00,,---,0.00,VWS V13.01,2013-10-22 21:46:00,
2013-10-22 16:47:00,58.6,43.0,29.87,SW,236,0.0,5.0,56,0.00,,---,0.00,VWS V13.01,2013-10-22 21:47:00,
2013-10-22 16:48:00,58.6,43.9,29.87,SW,236,1.0,5.0,58,0.00,,---,0.00,VWS V13.01,2013-10-22 21:48:00,
2013-10-22 16:49:00,58.6,43.4,29.87,SW,236,2.0,5.0,57,0.00,,---,0.00,VWS V13.01,2013-10-22 21:49:00,
2013-10-22 16:50:00,58.6,43.4,29.87,SW,236,0.0,5.0,57,0.00,,---,0.00,VWS V13.01,2013-10-22 21:50:00,
2013-10-22 16:51:00,58.5,43.3,29.87,SW,236,2.0,5.0,57,0.00,,---,0.00,VWS V13.01,2013-10-22 21:51:00,
2013-10-22 16:52:00,58.5,43.3,29.87,SW,236,2.0,5.0,57,0.00,,---,0.00,VWS V13.01,2013-10-22 21:52:00,
2013-10-22 16:53:00,58.5,43.8,29.87,SW,236,0.0,5.0,58,0.00,,---,0.00,VWS V13.01,2013-10-22 21:53:00,
2013-10-22 16:54:00,58.4,43.7,29.87,SW,236,1.0,5.0,58,0.00,,---,0.00,VWS V13.01,2013-10-22 21:54:00,
2013-10-22 16:55:00,58.4,43.7,29.87,SW,236,2.0,5.0,58,0.00,,---,0.00,VWS V13.01,2013-10-22 21:55:00,
2013-10-22 16:56:00,58.3,43.6,29.87,SW,236,1.0,5.0,58,0.00,,---,0.00,VWS V13.01,2013-10-22 21:56:00,
2013-10-22 16:57:00,58.3,43.6,29.87,SW,236,1.0,5.0,58,0.00,,---,0.00,VWS V13.01,2013-10-22 21:57:00,
2013-10-22 16:58:00,58.2,43.5,29.87,SW,236,0.0,5.0,58,0.00,,---,0.00,VWS V13.01,2013-10-22 21:58:00,
2013-10-22 16:59:00,58.2,44.0,29.87,SW,236,1.0,5.0,59,0.00,,---,0.00,VWS V13.01,2013-10-22 21:59:00,
2013-10-22 17:00:00,58.2,44.0,29.87,SW,236,0.0,5.0,59,0.00,,---,0.00,VWS V13.01,2013-10-22 22:00:00,
2013-10-22 17:01:00,58.1,43.4,29.87,SW,236,0.0,1.0,58,0.00,,---,0.00,VWS V13.01,2013-10-22 22:01:00,
2013-10-22 17:02:00,58.1,43.9,29.87,SW,236,0.0,1.0,59,0.00,,---,0.00,VWS V13.01,2013-10-22 22:02:00,
2013-10-22 17:03:00,58.1,43.9,29.87,SW,236,0.0,1.0,59,0.00,,---,0.00,VWS V13.01,2013-10-22 22:03:00,
2013-10-22 17:04:00,58.1,43.9,29.87,SW,236,0.0,1.0,59,0.00,,---,0.00,VWS V13.01,2013-10-22 22:04:00,
2013-10-22 17:05:00,58.0,44.2,29.87,SW,236,1.0,1.0,60,0.00,,---,0.00,VWS V13.01,2013-10-22 22:05:00,
2013-10-22 17:06:00,58.0,43.8,29.87,SW,236,1.0,1.0,59,0.00,,---,0.00,VWS V13.01,2013-10-22 22:06:00,
2013-10-22 17:07:00,58.0,44.6,29.87,SW,236,0.0,1.0,61,0.00,,---,0.00,VWS V13.01,2013-10-22 22:07:00,
2013-10-22 17:08:00,57.9,44.5,29.87,SW,236,0.0,1.0,61,0.00,,---,0.00,VWS V13.01,2013-10-22 22:08:00,
2013-10-22 17:09:00,57.8,44.0,29.87,SW,236,0.0,1.0,60,0.00,,---,0.00,VWS V13.01,2013-10-22 22:09:00,
2013-10-22 17:10:00,57.8,44.0,29.87,SW,236,0.0,1.0,60,0.00,,---,0.00,VWS V13.01,2013-10-22 22:10:00,
2013-10-22 17:11:00,57.8,44.0,29.87,SW,236,0.0,1.0,60,0.00,,---,0.00,VWS V13.01,2013-10-22 22:11:00,
2013-10-22 17:12:00,57.8,44.0,29.87,SW,236,0.0,1.0,60,0.00,,---,0.00,VWS V13.01,2013-10-22 22:12:00,
2013-10-22 17:13:00,57.7,44.4,29.87,SW,236,0.0,1.0,61,0.00,,---,0.00,VWS V13.01,2013-10-22 22:13:00,
2013-10-22 17:14:00,57.7,44.4,29.87,SW,236,0.0,1.0,61,0.00,,---,0.00,VWS V13.01,2013-10-22 22:14:00,
2013-10-22 17:15:00,57.7,43.9,29.87,SW,236,0.0,1.0,60,0.00,,---,0.00,VWS V13.01,2013-10-22 22:15:00,
2013-10-22 17:16:00,57.6,43.8,29.87,SW,236,0.0,1.0,60,0.00,,---,0.00,VWS V13.01,2013-10-22 22:16:00,
2013-10-22 17:17:00,57.6,43.8,29.87,SW,236,0.0,1.0,60,0.00,,---,0.00,VWS V13.01,2013-10-22 22:17:00,
2013-10-22 17:18:00,57.6,43.8,29.87,SW,236,0.0,1.0,60,0.00,,---,0.00,VWS V13.01,2013-10-22 22:18:00,
2013-10-22 17:19:00,57.6,44.3,29.87,SW,236,0.0,1.0,61,0.00,,---,0.00,VWS V13.01,2013-10-22 22:19:00,
2013-10-22 17:20:00,57.5,44.2,29.87,SW,236,0.0,1.0,61,0.00,,---,0.00,VWS V13.01,2013-10-22 22:20:00,
2013-10-22 17:21:00,57.5,44.2,29.86,SW,236,0.0,1.0,61,0.00,,---,0.00,VWS V13.01,2013-10-22 22:21:00,
2013-10-22 17:22:00,57.5,44.2,29.86,SW,236,0.0,1.0,61,0.00,,---,0.00,VWS V13.01,2013-10-22 22:22:00,
2013-10-22 17:23:00,57.4,44.1,29.86,SW,236,0.0,1.0,61,0.00,,---,0.00,VWS V13.01,2013-10-22 22:23:00,
2013-10-22 17:24:00,57.4,44.1,29.86,SW,236,0.0,1.0,61,0.00,,---,0.00,VWS V13.01,2013-10-22 22:24:00,
2013-10-22 17:25:00,57.3,44.8,29.86,SW,236,0.0,1.0,63,0.00,,---,0.00,VWS V13.01,2013-10-22 22:25:00,
2013-10-22 17:26:00,57.3,44.4,29.86,SW,236,0.0,1.0,62,0.00,,---,0.00,VWS V13.01,2013-10-22 22:26:00,
2013-10-22 17:27:00,57.3,44.4,29.86,SW,236,0.0,1.0,62,0.00,,---,0.00,VWS V13.01,2013-10-22 22:27:00,
2013-10-22 17:28:00,57.3,44.4,29.86,SW,236,0.0,1.0,62,0.00,,---,0.00,VWS V13.01,2013-10-22 22:28:00,
2013-10-22 17:29:00,57.2,44.3,29.86,SW,236,0.0,1.0,62,0.00,,---,0.00,VWS V13.01,2013-10-22 22:29:00,
2013-10-22 17:30:00,57.1,44.2,29.86,SW,236,0.0,1.0,62,0.00,,---,0.00,VWS V13.01,2013-10-22 22:30:00,
2013-10-22 17:31:00,57.1,44.6,29.86,SW,236,0.0,0.0,63,0.00,,---,0.00,VWS V13.01,2013-10-22 22:31:00,
2013-10-22 17:32:00,57.1,44.6,29.86,SW,236,0.0,0.0,63,0.00,,---,0.00,VWS V13.01,2013-10-22 22:32:00,
2013-10-22 17:33:00,57.0,44.5,29.86,SW,236,0.0,0.0,63,0.00,,---,0.00,VWS V13.01,2013-10-22 22:33:00,
2013-10-22 17:34:00,57.0,44.5,29.86,SW,236,0.0,0.0,63,0.00,,---,0.00,VWS V13.01,2013-10-22 22:34:00,
2013-10-22 17:35:00,57.0,44.5,29.86,SW,236,0.0,0.0,63,0.00,,---,0.00,VWS V13.01,2013-10-22 22:35:00,
2013-10-22 17:36:00,56.9,44.5,29.86,SW,236,0.0,0.0,63,0.00,,---,0.00,VWS V13.01,2013-10-22 22:36:00,
2013-10-22 17:37:00,56.9,45.3,29.86,SW,236,0.0,0.0,65,0.00,,---,0.00,VWS V13.01,2013-10-22 22:37:00,
2013-10-22 17:38:00,56.9,45.7,29.86,SW,236,0.0,0.0,66,0.00,,---,0.00,VWS V13.01,2013-10-22 22:38:00,
2013-10-22 17:39:00,56.8,45.6,29.86,SW,236,0.0,0.0,66,0.00,,---,0.00,VWS V13.01,2013-10-22 22:39:00,
2013-10-22 17:40:00,56.8,45.6,29.86,SW,236,0.0,1.0,66,0.00,,---,0.00,VWS V13.01,2013-10-22 22:40:00,
2013-10-22 17:41:00,56.8,46.0,29.86,SW,236,0.0,1.0,67,0.00,,---,0.00,VWS V13.01,2013-10-22 22:41:00,
2013-10-22 17:42:00,56.7,45.9,29.86,SW,236,0.0,1.0,67,0.00,,---,0.00,VWS V13.01,2013-10-22 22:42:00,
2013-10-22 17:43:00,56.6,45.8,29.86,SW,236,0.0,1.0,67,0.00,,---,0.00,VWS V13.01,2013-10-22 22:43:00,
2013-10-22 17:44:00,56.6,45.8,29.86,SW,236,0.0,1.0,67,0.00,,---,0.00,VWS V13.01,2013-10-22 22:44:00,
2013-10-22 17:45:00,56.6,46.2,29.86,SW,236,0.0,1.0,68,0.00,,---,0.00,VWS V13.01,2013-10-22 22:45:00,
2013-10-22 17:46:00,56.5,45.7,29.86,SW,236,0.0,1.0,67,0.00,,---,0.00,VWS V13.01,2013-10-22 22:46:00,
2013-10-22 17:47:00,56.5,45.7,29.86,SW,236,0.0,1.0,67,0.00,,---,0.00,VWS V13.01,2013-10-22 22:47:00,
2013-10-22 17:48:00,56.4,45.6,29.86,SW,236,0.0,1.0,67,0.00,,---,0.00,VWS V13.01,2013-10-22 22:48:00,
2013-10-22 17:49:00,56.4,45.6,29.86,SW,236,0.0,1.0,67,0.00,,---,0.00,VWS V13.01,2013-10-22 22:49:00,
2013-10-22 17:50:00,56.3,45.5,29.86,SW,236,0.0,1.0,67,0.00,,---,0.00,VWS V13.01,2013-10-22 22:50:00,
2013-10-22 17:51:00,56.3,45.9,29.86,SW,236,0.0,1.0,68,0.00,,---,0.00,VWS V13.01,2013-10-22 22:51:00,
2013-10-22 17:52:00,56.2,45.8,29.86,SW,236,0.0,1.0,68,0.00,,---,0.00,VWS V13.01,2013-10-22 22:52:00,
2013-10-22 17:53:00,56.2,45.8,29.86,SW,236,0.0,1.0,68,0.00,,---,0.00,VWS V13.01,2013-10-22 22:53:00,
2013-10-22 17:54:00,56.2,45.8,29.87,SW,236,0.0,1.0,68,0.00,,---,0.00,VWS V13.01,2013-10-22 22:54:00,
2013-10-22 17:55:00,56.1,45.3,29.86,SW,236,0.0,1.0,67,0.00,,---,0.00,VWS V13.01,2013-10-22 22:55:00,
2013-10-22 17:56:00,56.1,45.7,29.87,SW,236,0.0,1.0,68,0.00,,---,0.00,VWS V13.01,2013-10-22 22:56:00,
2013-10-22 17:57:00,56.0,45.2,29.87,SW,236,0.0,1.0,67,0.00,,---,0.00,VWS V13.01,2013-10-22 22:57:00,
2013-10-22 17:58:00,56.0,45.2,29.87,SW,236,0.0,1.0,67,0.00,,---,0.00,VWS V13.01,2013-10-22 22:58:00,